Time,TemperatureF,DewpointF,PressureIn,WindDirection,WindDirectionDegrees,WindSpeedMPH,WindSpeedGustMPH,Humidity,HourlyPrecipIn,Conditions,Clouds,dailyrainin,SoftwareType,DateUTC
2013-07-13 00:00:00,68.1,60.4,29.29,East,81,1.0,4.0,76,0.00,,,0.00,WUHU216DAVISVP2,2013-07-13 04:00:00,
2013-07-13 00:01:00,68.0,60.3,29.30,East,81,1.0,4.0,76,0.00,,,0.00,WUHU216DAVISVP2,2013-07-13 04:01:00,
2013-07-13 00:02:00,67.9,60.2,29.30,East,81,0.0,4.0,76,0.00,,,0.00,WUHU216DAVISVP2,2013-07-13 04:02:00,
2013-07-13 00:06:00,67.5,60.5,29.29,East,81,2.0,4.0,78,0.00,,,0.00,WUHU216DAVISVP2,2013-07-13 04:06:00,
2013-07-13 00:07:00,67.5,60.5,29.29,East,81,1.0,4.0,78,0.00,,,0.00,WUHU216DAVISVP2,2013-07-13 04:07:00,
2013-07-13 00:11:00,67.2,60.6,29.29,East,81,2.0,4.0,79,0.00,,,0.00,WUHU216DAVISVP2,2013-07-13 04:11:00,
2013-07-13 00:12:00,67.1,60.5,29.29,East,81,1.0,2.0,79,0.00,,,0.00,WUHU216DAVISVP2,2013-07-13 04:12:00,
2013-07-13 00:16:00,66.8,60.5,29.29,East,81,2.0,4.0,80,0.00,,,0.00,WUHU216DAVISVP2,2013-07-13 04:16:00,
2013-07-13 00:17:00,66.8,60.5,29.29,East,81,2.0,4.0,80,0.00,,,0.00,WUHU216DAVISVP2,2013-07-13 04:17:00,
2013-07-13 00:21:00,66.5,60.2,29.29,East,81,2.0,4.0,80,0.00,,,0.00,WUHU216DAVISVP2,2013-07-13 04:21:00,
2013-07-13 00:22:00,66.5,60.2,29.29,East,81,3.0,4.0,80,0.00,,,0.00,WUHU216DAVISVP2,2013-07-13 04:22:00,
2013-07-13 00:26:00,66.1,60.2,29.30,East,81,0.0,4.0,81,0.00,,,0.00,WUHU216DAVISVP2,2013-07-13 04:26:00,
2013-07-13 00:27:00,66.1,60.2,29.30,East,81,2.0,4.0,81,0.00,,,0.00,WUHU216DAVISVP2,2013-07-13 04:27:00,
2013-07-13 00:28:00,66.0,60.1,29.30,East,81,0.0,4.0,81,0.00,,,0.00,WUHU216DAVISVP2,2013-07-13 04:28:00,
2013-07-13 00:32:00,65.8,59.8,29.29,East,81,0.0,4.0,81,0.00,,,0.00,WUHU216DAVISVP2,2013-07-13 04:32:00,
2013-07-13 00:33:00,65.7,60.1,29.29,East,81,0.0,4.0,82,0.00,,,0.00,WUHU216DAVISVP2,2013-07-13 04:33:00,
2013-07-13 00:37:00,65.5,59.9,29.29,East,81,1.0,4.0,82,0.00,,,0.00,WUHU216DAVISVP2,2013-07-13 04:37:00,
2013-07-13 00:38:00,65.5,59.9,29.29,East,81,1.0,4.0,82,0.00,,,0.00,WUHU216DAVISVP2,2013-07-13 04:38:00,
2013-07-13 00:42:00,65.3,59.7,29.29,East,81,3.0,4.0,82,0.00,,,0.00,WUHU216DAVISVP2,2013-07-13 04:42:00,
2013-07-13 00:43:00,65.2,59.6,29.29,East,81,2.0,4.0,82,0.00,,,0.00,WUHU216DAVISVP2,2013-07-13 04:43:00,
2013-07-13 00:47:00,65.3,59.4,29.29,East,81,4.0,5.0,81,0.00,,,0.00,WUHU216DAVISVP2,2013-07-13 04:47:00,
2013-07-13 00:48:00,65.3,59.4,29.29,East,81,4.0,5.0,81,0.00,,,0.00,WUHU216DAVISVP2,2013-07-13 04:48:00,
2013-07-13 00:52:00,65.4,59.5,29.29,East,81,3.0,5.0,81,0.00,,,0.00,WUHU216DAVISVP2,2013-07-13 04:52:00,
2013-07-13 00:53:00,65.5,59.2,29.29,East,81,3.0,5.0,80,0.00,,,0.00,WUHU216DAVISVP2,2013-07-13 04:53:00,
2013-07-13 00:54:00,65.5,59.2,29.29,East,81,1.0,5.0,80,0.00,,,0.00,WUHU216DAVISVP2,2013-07-13 04:54:00,
2013-07-13 00:57:00,65.7,59.4,29.29,East,81,1.0,5.0,80,0.00,,,0.00,WUHU216DAVISVP2,2013-07-13 04:57:00,
2013-07-13 00:58:00,65.7,59.4,29.29,East,81,2.0,5.0,80,0.00,,,0.00,WUHU216DAVISVP2,2013-07-13 04:58:00,
2013-07-13 00:59:00,65.7,59.4,29.29,East,81,1.0,5.0,80,0.00,,,0.00,WUHU216DAVISVP2,2013-07-13 04:59:00,
2013-07-13 01:02:00,65.8,59.2,29.29,East,81,2.0,5.0,79,0.00,,,0.00,WUHU216DAVISVP2,2013-07-13 05:02:00,
2013-07-13 01:03:00,65.9,59.3,29.29,East,81,1.0,5.0,79,0.00,,,0.00,WUHU216DAVISVP2,2013-07-13 05:03:00,
2013-07-13 01:04:00,65.9,59.3,29.29,East,81,1.0,5.0,79,0.00,,,0.00,WUHU216DAVISVP2,2013-07-13 05:04:00,
2013-07-13 01:08:00,65.9,58.9,29.29,East,87,2.0,6.0,78,0.00,,,0.00,WUHU216DAVISVP2,2013-07-13 05:08:00,
2013-07-13 01:09:00,66.0,59.0,29.29,East,87,2.0,6.0,78,0.00,,,0.00,WUHU216DAVISVP2,2013-07-13 05:09:00,
2013-07-13 01:13:00,65.9,58.9,29.29,East,87,1.0,6.0,78,0.00,,,0.00,WUHU216DAVISVP2,2013-07-13 05:13:00,
2013-07-13 01:14:00,65.9,59.3,29.29,East,87,2.0,6.0,79,0.00,,,0.00,WUHU216DAVISVP2,2013-07-13 05:14:00,
2013-07-13 01:15:00,65.8,59.2,29.29,East,87,1.0,6.0,79,0.00,,,0.00,WUHU216DAVISVP2,2013-07-13 05:15:00,
2013-07-13 01:18:00,65.7,59.1,29.29,East,87,0.0,6.0,79,0.00,,,0.00,WUHU216DAVISVP2,2013-07-13 05:18:00,
2013-07-13 01:19:00,65.7,59.1,29.29,East,87,1.0,6.0,79,0.00,,,0.00,WUHU216DAVISVP2,2013-07-13 05:19:00,
2013-07-13 01:20:00,65.7,59.1,29.29,East,87,2.0,6.0,79,0.00,,,0.00,WUHU216DAVISVP2,2013-07-13 05:20:00,
2013-07-13 01:23:00,65.5,58.9,29.30,East,87,1.0,6.0,79,0.00,,,0.00,WUHU216DAVISVP2,2013-07-13 05:23:00,
2013-07-13 01:24:00,65.5,58.9,29.29,East,87,0.0,6.0,79,0.00,,,0.00,WUHU216DAVISVP2,2013-07-13 05:24:00,
2013-07-13 01:25:00,65.5,58.9,29.29,East,88,0.0,5.0,79,0.00,,,0.00,WUHU216DAVISVP2,2013-07-13 05:25:00,
2013-07-13 01:28:00,65.4,59.1,29.30,East,87,1.0,4.0,80,0.00,,,0.00,WUHU216DAVISVP2,2013-07-13 05:28:00,
2013-07-13 01:29:00,65.4,59.1,29.30,East,87,1.0,4.0,80,0.00,,,0.00,WUHU216DAVISVP2,2013-07-13 05:29:00,
2013-07-13 01:30:00,65.3,59.0,29.30,East,87,1.0,4.0,80,0.00,,,0.00,WUHU216DAVISVP2,2013-07-13 05:30:00,
2013-07-13 01:34:00,65.2,58.9,29.30,East,87,1.0,4.0,80,0.00,,,0.00,WUHU216DAVISVP2,2013-07-13 05:34:00,
2013-07-13 01:35:00,65.1,58.8,29.30,East,87,1.0,4.0,80,0.00,,,0.00,WUHU216DAVISVP2,2013-07-13 05:35:00,
2013-07-13 01:39:00,65.0,59.1,29.29,East,87,2.0,4.0,81,0.00,,,0.00,WUHU216DAVISVP2,2013-07-13 05:39:00,
2013-07-13 01:40:00,65.0,59.0,29.29,East,87,3.0,4.0,81,0.00,,,0.00,WUHU216DAVISVP2,2013-07-13 05:40:00,
2013-07-13 01:41:00,65.0,59.0,29.29,East,88,2.0,4.0,81,0.00,,,0.00,WUHU216DAVISVP2,2013-07-13 05:41:00,
2013-07-13 01:44:00,65.0,58.7,29.29,East,87,1.0,4.0,80,0.00,,,0.00,WUHU216DAVISVP2,2013-07-13 05:44:00,
2013-07-13 01:45:00,65.0,58.7,29.29,East,87,2.0,4.0,80,0.00,,,0.00,WUHU216DAVISVP2,2013-07-13 05:45:00,
2013-07-13 01:46:00,65.0,58.7,29.29,East,87,2.0,4.0,80,0.00,,,0.00,WUHU216DAVISVP2,2013-07-13 05:46:00,
2013-07-13 01:49:00,65.0,58.7,29.29,East,88,2.0,5.0,80,0.00,,,0.00,WUHU216DAVISVP2,2013-07-13 05:49:00,
2013-07-13 01:50:00,65.0,58.7,29.29,East,87,2.0,5.0,80,0.00,,,0.00,WUHU216DAVISVP2,2013-07-13 05:50:00,
2013-07-13 01:51:00,65.0,58.7,29.29,East,87,2.0,5.0,80,0.00,,,0.00,WUHU216DAVISVP2,2013-07-13 05:51:00,
2013-07-13 01:54:00,64.9,58.6,29.29,East,87,1.0,5.0,80,0.00,,,0.00,WUHU216DAVISVP2,2013-07-13 05:54:00,
2013-07-13 01:55:00,64.9,58.6,29.29,East,87,2.0,5.0,80,0.00,,,0.00,WUHU216DAVISVP2,2013-07-13 05:55:00,
2013-07-13 01:56:00,64.9,59.0,29.30,East,88,1.0,5.0,81,0.00,,,0.00,WUHU216DAVISVP2,2013-07-13 05:56:00,
2013-07-13 01:59:00,64.7,58.8,29.30,ESE,108,4.0,5.0,81,0.00,,,0.00,WUHU216DAVISVP2,2013-07-13 05:59:00,
2013-07-13 02:00:00,64.7,58.8,29.29,ESE,102,3.0,5.0,81,0.00,,,0.00,WUHU216DAVISVP2,2013-07-13 06:00:00,
2013-07-13 02:01:00,64.6,58.7,29.29,ESE,102,3.0,5.0,81,0.00,,,0.00,WUHU216DAVISVP2,2013-07-13 06:01:00,
2013-07-13 02:02:00,64.6,58.7,29.29,ESE,102,2.0,5.0,81,0.00,,,0.00,WUHU216DAVISVP2,2013-07-13 06:02:00,
2013-07-13 02:04:00,64.5,58.5,29.29,ESE,121,1.0,6.0,81,0.00,,,0.00,WUHU216DAVISVP2,2013-07-13 06:04:00,
2013-07-13 02:05:00,64.4,58.4,29.29,ESE,109,5.0,6.0,81,0.00,,,0.00,WUHU216DAVISVP2,2013-07-13 06:05:00,
2013-07-13 02:06:00,64.4,58.8,29.29,ESE,110,1.0,6.0,82,0.00,,,0.00,WUHU216DAVISVP2,2013-07-13 06:06:00,
2013-07-13 02:07:00,64.3,58.7,29.29,ESE,110,2.0,6.0,82,0.00,,,0.00,WUHU216DAVISVP2,2013-07-13 06:07:00,
2013-07-13 02:10:00,64.1,58.5,29.29,ESE,110,0.0,6.0,82,0.00,,,0.00,WUHU216DAVISVP2,2013-07-13 06:10:00,
2013-07-13 02:11:00,64.1,58.5,29.29,ESE,110,0.0,6.0,82,0.00,,,0.00,WUHU216DAVISVP2,2013-07-13 06:11:00,
2013-07-13 02:12:00,64.0,58.7,29.29,ESE,110,0.0,6.0,83,0.00,,,0.00,WUHU216DAVISVP2,2013-07-13 06:12:00,
2013-07-13 02:15:00,63.9,58.6,29.29,ESE,110,0.0,6.0,83,0.00,,,0.00,WUHU216DAVISVP2,2013-07-13 06:15:00,
2013-07-13 02:16:00,63.8,58.5,29.29,ESE,110,1.0,6.0,83,0.00,,,0.00,WUHU216DAVISVP2,2013-07-13 06:16:00,
2013-07-13 02:17:00,63.8,58.9,29.29,ESE,110,0.0,6.0,84,0.00,,,0.00,WUHU216DAVISVP2,2013-07-13 06:17:00,
2013-07-13 02:20:00,63.7,58.8,29.29,ESE,110,0.0,6.0,84,0.00,,,0.00,WUHU216DAVISVP2,2013-07-13 06:20:00,
2013-07-13 02:21:00,63.7,58.8,29.29,ESE,110,0.0,6.0,84,0.00,,,0.00,WUHU216DAVISVP2,2013-07-13 06:21:00,
2013-07-13 02:22:00,63.7,58.8,29.29,ESE,110,0.0,6.0,84,0.00,,,0.00,WUHU216DAVISVP2,2013-07-13 06:22:00,
2013-07-13 02:23:00,63.6,58.7,29.29,ESE,110,0.0,5.0,84,0.00,,,0.00,WUHU216DAVISVP2,2013-07-13 06:23:00,
2013-07-13 02:25:00,63.5,58.6,29.30,ESE,110,0.0,5.0,84,0.00,,,0.00,WUHU216DAVISVP2,2013-07-13 06:25:00,
2013-07-13 02:26:00,63.5,58.9,29.30,ESE,110,0.0,5.0,85,0.00,,,0.00,WUHU216DAVISVP2,2013-07-13 06:26:00,
2013-07-13 02:27:00,63.5,58.9,29.30,ESE,110,0.0,5.0,85,0.00,,,0.00,WUHU216DAVISVP2,2013-07-13 06:27:00,
2013-07-13 02:28:00,63.5,58.9,29.30,ESE,110,0.0,4.0,85,0.00,,,0.00,WUHU216DAVISVP2,2013-07-13 06:28:00,
2013-07-13 02:30:00,63.4,58.8,29.29,ESE,110,0.0,4.0,85,0.00,,,0.00,WUHU216DAVISVP2,2013-07-13 06:30:00,
2013-07-13 02:32:00,63.3,58.7,29.29,ESE,110,0.0,4.0,85,0.00,,,0.00,WUHU216DAVISVP2,2013-07-13 06:32:00,
2013-07-13 02:33:00,63.3,58.7,29.29,ESE,110,1.0,2.0,85,0.00,,,0.00,WUHU216DAVISVP2,2013-07-13 06:33:00,
2013-07-13 02:35:00,63.2,58.9,29.29,ESE,110,0.0,1.0,86,0.00,,,0.00,WUHU216DAVISVP2,2013-07-13 06:35:00,
2013-07-13 02:37:00,63.1,58.8,29.29,ESE,110,0.0,1.0,86,0.00,,,0.00,WUHU216DAVISVP2,2013-07-13 06:37:00,
2013-07-13 02:38:00,63.1,58.8,29.29,ESE,110,0.0,1.0,86,0.00,,,0.00,WUHU216DAVISVP2,2013-07-13 06:38:00,
2013-07-13 02:40:00,63.0,58.7,29.30,ESE,110,0.0,2.0,86,0.00,,,0.00,WUHU216DAVISVP2,2013-07-13 06:40:00,
2013-07-13 02:42:00,62.9,59.0,29.29,ESE,110,0.0,2.0,87,0.00,,,0.00,WUHU216DAVISVP2,2013-07-13 06:42:00,
2013-07-13 02:43:00,62.9,59.0,29.30,ESE,110,0.0,2.0,87,0.00,,,0.00,WUHU216DAVISVP2,2013-07-13 06:43:00,
2013-07-13 02:46:00,62.7,58.8,29.30,ESE,110,1.0,2.0,87,0.00,,,0.00,WUHU216DAVISVP2,2013-07-13 06:46:00,
2013-07-13 02:47:00,62.7,58.8,29.30,ESE,110,2.0,4.0,87,0.00,,,0.00,WUHU216DAVISVP2,2013-07-13 06:47:00,
2013-07-13 02:48:00,62.6,58.7,29.30,ESE,110,1.0,4.0,87,0.00,,,0.00,WUHU216DAVISVP2,2013-07-13 06:48:00,
2013-07-13 02:51:00,62.5,58.9,29.29,ESE,110,1.0,4.0,88,0.00,,,0.00,WUHU216DAVISVP2,2013-07-13 06:51:00,
2013-07-13 02:52:00,62.5,58.9,29.29,ESE,110,1.0,4.0,88,0.00,,,0.00,WUHU216DAVISVP2,2013-07-13 06:52:00,
2013-07-13 02:53:00,62.5,58.9,29.29,ESE,110,1.0,4.0,88,0.00,,,0.00,WUHU216DAVISVP2,2013-07-13 06:53:00,
2013-07-13 02:57:00,62.3,58.7,29.29,ESE,110,2.0,4.0,88,0.00,,,0.00,WUHU216DAVISVP2,2013-07-13 06:57:00,
2013-07-13 02:58:00,62.3,58.7,29.29,ESE,110,0.0,4.0,88,0.00,,,0.00,WUHU216DAVISVP2,2013-07-13 06:58:00,
2013-07-13 02:59:00,62.2,58.9,29.29,ESE,110,0.0,4.0,89,0.00,,,0.00,WUHU216DAVISVP2,2013-07-13 06:59:00,
2013-07-13 03:02:00,62.2,58.9,29.29,ESE,110,0.0,4.0,89,0.00,,,0.00,WUHU216DAVISVP2,2013-07-13 07:02:00,
2013-07-13 03:03:00,62.1,58.8,29.29,ESE,110,0.0,4.0,89,0.00,,,0.00,WUHU216DAVISVP2,2013-07-13 07:03:00,
2013-07-13 03:04:00,62.1,58.8,29.29,ESE,110,1.0,4.0,89,0.00,,,0.00,WUHU216DAVISVP2,2013-07-13 07:04:00,
2013-07-13 03:07:00,62.1,58.8,29.29,ESE,110,1.0,4.0,89,0.00,,,0.00,WUHU216DAVISVP2,2013-07-13 07:07:00,
2013-07-13 03:08:00,62.1,58.8,29.28,ESE,110,0.0,4.0,89,0.00,,,0.00,WUHU216DAVISVP2,2013-07-13 07:08:00,
2013-07-13 03:09:00,62.1,58.8,29.29,ESE,110,0.0,4.0,89,0.00,,,0.00,WUHU216DAVISVP2,2013-07-13 07:09:00,
2013-07-13 03:12:00,62.0,58.7,29.29,ESE,110,0.0,4.0,89,0.00,,,0.00,WUHU216DAVISVP2,2013-07-13 07:12:00,
2013-07-13 03:13:00,62.1,58.8,29.29,ESE,110,0.0,4.0,89,0.00,,,0.00,WUHU216DAVISVP2,2013-07-13 07:13:00,
2013-07-13 03:14:00,62.0,58.7,29.29,ESE,110,0.0,4.0,89,0.00,,,0.00,WUHU216DAVISVP2,2013-07-13 07:14:00,
2013-07-13 03:17:00,62.1,58.8,29.29,ESE,110,0.0,4.0,89,0.00,,,0.00,WUHU216DAVISVP2,2013-07-13 07:17:00,
2013-07-13 03:18:00,62.1,58.8,29.29,ESE,110,0.0,4.0,89,0.00,,,0.00,WUHU216DAVISVP2,2013-07-13 07:18:00,
2013-07-13 03:19:00,62.1,58.8,29.29,ESE,110,0.0,4.0,89,0.00,,,0.00,WUHU216DAVISVP2,2013-07-13 07:19:00,
2013-07-13 03:22:00,62.2,58.6,29.29,ESE,110,0.0,4.0,88,0.00,,,0.00,WUHU216DAVISVP2,2013-07-13 07:22:00,
2013-07-13 03:23:00,62.2,58.6,29.29,ESE,110,2.0,4.0,88,0.00,,,0.00,WUHU216DAVISVP2,2013-07-13 07:23:00,
2013-07-13 03:24:00,62.2,58.6,29.29,ESE,110,0.0,4.0,88,0.00,,,0.00,WUHU216DAVISVP2,2013-07-13 07:24:00,
2013-07-13 03:25:00,62.2,58.9,29.29,ESE,110,0.0,4.0,89,0.00,,,0.00,WUHU216DAVISVP2,2013-07-13 07:25:00,
2013-07-13 03:27:00,62.2,58.6,29.29,ESE,110,0.0,2.0,88,0.00,,,0.00,WUHU216DAVISVP2,2013-07-13 07:27:00,
2013-07-13 03:28:00,62.3,58.7,29.29,ESE,110,0.0,2.0,88,0.00,,,0.00,WUHU216DAVISVP2,2013-07-13 07:28:00,
2013-07-13 03:29:00,62.3,58.7,29.29,ESE,110,1.0,2.0,88,0.00,,,0.00,WUHU216DAVISVP2,2013-07-13 07:29:00,
2013-07-13 03:30:00,62.2,58.6,29.29,ESE,110,0.0,2.0,88,0.00,,,0.00,WUHU216DAVISVP2,2013-07-13 07:30:00,
2013-07-13 03:33:00,62.2,58.6,29.29,ESE,110,0.0,2.0,88,0.00,,,0.00,WUHU216DAVISVP2,2013-07-13 07:33:00,
2013-07-13 03:34:00,62.2,58.6,29.29,ESE,110,0.0,2.0,88,0.00,,,0.00,WUHU216DAVISVP2,2013-07-13 07:34:00,
2013-07-13 03:35:00,62.3,58.7,29.29,ESE,110,0.0,2.0,88,0.00,,,0.00,WUHU216DAVISVP2,2013-07-13 07:35:00,
2013-07-13 03:38:00,62.3,58.7,29.29,ESE,110,0.0,2.0,88,0.00,,,0.00,WUHU216DAVISVP2,2013-07-13 07:38:00,
2013-07-13 03:39:00,62.3,58.7,29.29,ESE,110,0.0,2.0,88,0.00,,,0.00,WUHU216DAVISVP2,2013-07-13 07:39:00,
2013-07-13 03:40:00,62.3,58.7,29.29,ESE,110,0.0,2.0,88,0.00,,,0.00,WUHU216DAVISVP2,2013-07-13 07:40:00,
2013-07-13 03:44:00,62.3,58.7,29.29,ESE,110,0.0,2.0,88,0.00,,,0.00,WUHU216DAVISVP2,2013-07-13 07:44:00,
2013-07-13 03:45:00,62.3,58.7,29.30,ESE,110,0.0,2.0,88,0.00,,,0.00,WUHU216DAVISVP2,2013-07-13 07:45:00,
2013-07-13 03:49:00,62.2,58.6,29.29,ESE,110,1.0,2.0,88,0.00,,,0.00,WUHU216DAVISVP2,2013-07-13 07:49:00,
2013-07-13 03:50:00,62.2,58.6,29.29,ESE,110,0.0,2.0,88,0.00,,,0.00,WUHU216DAVISVP2,2013-07-13 07:50:00,
2013-07-13 03:54:00,62.2,58.6,29.29,ESE,110,0.0,2.0,88,0.00,,,0.00,WUHU216DAVISVP2,2013-07-13 07:54:00,
2013-07-13 03:55:00,62.2,58.6,29.29,ESE,110,0.0,2.0,88,0.00,,,0.00,WUHU216DAVISVP2,2013-07-13 07:55:00,
2013-07-13 03:59:00,62.1,58.5,29.30,ESE,110,0.0,1.0,88,0.00,,,0.00,WUHU216DAVISVP2,2013-07-13 07:59:00,
2013-07-13 04:00:00,62.0,58.4,29.30,ESE,110,0.0,1.0,88,0.00,,,0.00,WUHU216DAVISVP2,2013-07-13 08:00:00,
2013-07-13 04:04:00,61.9,58.3,29.30,ESE,110,0.0,1.0,88,0.00,,,0.00,WUHU216DAVISVP2,2013-07-13 08:04:00,
2013-07-13 04:05:00,61.9,58.3,29.30,ESE,110,0.0,1.0,88,0.00,,,0.00,WUHU216DAVISVP2,2013-07-13 08:05:00,
2013-07-13 04:06:00,61.9,58.6,29.31,ESE,110,0.0,1.0,89,0.00,,,0.00,WUHU216DAVISVP2,2013-07-13 08:06:00,
2013-07-13 04:09:00,61.8,58.5,29.31,ESE,110,0.0,1.0,89,0.00,,,0.00,WUHU216DAVISVP2,2013-07-13 08:09:00,
2013-07-13 04:10:00,61.8,58.5,29.31,ESE,110,0.0,1.0,89,0.00,,,0.00,WUHU216DAVISVP2,2013-07-13 08:10:00,
2013-07-13 04:11:00,61.8,58.5,29.31,ESE,110,0.0,1.0,89,0.00,,,0.00,WUHU216DAVISVP2,2013-07-13 08:11:00,
2013-07-13 04:14:00,61.8,58.5,29.31,ESE,110,0.0,1.0,89,0.00,,,0.00,WUHU216DAVISVP2,2013-07-13 08:14:00,
2013-07-13 04:15:00,61.8,58.5,29.31,ESE,110,0.0,1.0,89,0.00,,,0.00,WUHU216DAVISVP2,2013-07-13 08:15:00,
2013-07-13 04:16:00,61.8,58.5,29.31,ESE,110,0.0,1.0,89,0.00,,,0.00,WUHU216DAVISVP2,2013-07-13 08:16:00,
2013-07-13 04:19:00,61.7,58.4,29.30,ESE,110,0.0,1.0,89,0.00,,,0.00,WUHU216DAVISVP2,2013-07-13 08:19:00,
2013-07-13 04:20:00,61.7,58.4,29.30,ESE,110,0.0,1.0,89,0.00,,,0.00,WUHU216DAVISVP2,2013-07-13 08:20:00,
2013-07-13 04:21:00,61.7,58.4,29.30,ESE,110,0.0,1.0,89,0.00,,,0.00,WUHU216DAVISVP2,2013-07-13 08:21:00,
2013-07-13 04:24:00,61.6,58.3,29.30,ESE,110,0.0,1.0,89,0.00,,,0.00,WUHU216DAVISVP2,2013-07-13 08:24:00,
2013-07-13 04:25:00,61.6,58.3,29.30,ESE,110,0.0,1.0,89,0.00,,,0.00,WUHU216DAVISVP2,2013-07-13 08:25:00,
2013-07-13 04:26:00,61.6,58.3,29.30,ESE,110,0.0,1.0,89,0.00,,,0.00,WUHU216DAVISVP2,2013-07-13 08:26:00,
2013-07-13 04:27:00,61.7,58.4,29.30,ESE,110,0.0,1.0,89,0.00,,,0.00,WUHU216DAVISVP2,2013-07-13 08:27:00,
2013-07-13 04:29:00,61.7,58.4,29.30,ESE,110,1.0,1.0,89,0.00,,,0.00,WUHU216DAVISVP2,2013-07-13 08:29:00,
2013-07-13 04:30:00,61.7,58.4,29.30,ESE,110,0.0,1.0,89,0.00,,,0.00,WUHU216DAVISVP2,2013-07-13 08:30:00,
2013-07-13 04:31:00,61.7,58.4,29.30,ESE,110,0.0,1.0,89,0.00,,,0.00,WUHU216DAVISVP2,2013-07-13 08:31:00,
2013-07-13 04:32:00,61.7,58.4,29.30,ESE,110,1.0,2.0,89,0.00,,,0.00,WUHU216DAVISVP2,2013-07-13 08:32:00,
2013-07-13 04:35:00,61.8,58.5,29.30,ESE,110,0.0,2.0,89,0.00,,,0.00,WUHU216DAVISVP2,2013-07-13 08:35:00,
2013-07-13 04:36:00,61.8,58.5,29.30,ESE,110,0.0,2.0,89,0.00,,,0.00,WUHU216DAVISVP2,2013-07-13 08:36:00,
2013-07-13 04:38:00,61.9,58.6,29.30,ESE,110,0.0,2.0,89,0.00,,,0.00,WUHU216DAVISVP2,2013-07-13 08:38:00,
2013-07-13 04:40:00,62.0,58.7,29.30,ESE,110,0.0,2.0,89,0.00,,,0.00,WUHU216DAVISVP2,2013-07-13 08:40:00,
2013-07-13 04:41:00,62.0,58.7,29.30,ESE,110,0.0,2.0,89,0.00,,,0.00,WUHU216DAVISVP2,2013-07-13 08:41:00,
2013-07-13 04:43:00,62.0,58.7,29.30,ESE,110,0.0,2.0,89,0.00,,,0.00,WUHU216DAVISVP2,2013-07-13 08:43:00,
2013-07-13 04:45:00,62.0,58.7,29.30,ESE,110,0.0,2.0,89,0.00,,,0.00,WUHU216DAVISVP2,2013-07-13 08:45:00,
2013-07-13 04:46:00,62.0,58.7,29.30,ESE,110,0.0,2.0,89,0.00,,,0.00,WUHU216DAVISVP2,2013-07-13 08:46:00,
2013-07-13 04:48:00,62.1,58.8,29.30,ESE,110,0.0,2.0,89,0.00,,,0.00,WUHU216DAVISVP2,2013-07-13 08:48:00,
2013-07-13 04:51:00,62.1,58.8,29.30,ESE,110,0.0,2.0,89,0.00,,,0.00,WUHU216DAVISVP2,2013-07-13 08:51:00,
2013-07-13 04:52:00,62.1,58.8,29.30,ESE,110,0.0,2.0,89,0.00,,,0.00,WUHU216DAVISVP2,2013-07-13 08:52:00,
2013-07-13 04:54:00,62.2,58.6,29.31,ESE,110,0.0,0.0,88,0.00,,,0.00,WUHU216DAVISVP2,2013-07-13 08:54:00,
2013-07-13 04:56:00,62.2,58.6,29.31,ESE,110,1.0,2.0,88,0.00,,,0.00,WUHU216DAVISVP2,2013-07-13 08:56:00,
2013-07-13 04:57:00,62.2,58.6,29.31,ESE,110,1.0,2.0,88,0.00,,,0.00,WUHU216DAVISVP2,2013-07-13 08:57:00,
2013-07-13 04:59:00,62.3,58.7,29.31,ESE,110,0.0,4.0,88,0.00,,,0.00,WUHU216DAVISVP2,2013-07-13 08:59:00,
2013-07-13 05:01:00,62.3,58.7,29.31,ESE,110,1.0,4.0,88,0.00,,,0.00,WUHU216DAVISVP2,2013-07-13 09:01:00,
2013-07-13 05:02:00,62.3,58.7,29.31,ESE,110,1.0,4.0,88,0.00,,,0.00,WUHU216DAVISVP2,2013-07-13 09:02:00,
2013-07-13 05:04:00,62.3,58.7,29.31,ESE,110,1.0,4.0,88,0.00,,,0.00,WUHU216DAVISVP2,2013-07-13 09:04:00,
2013-07-13 05:06:00,62.2,58.6,29.31,ESE,110,0.0,4.0,88,0.00,,,0.00,WUHU216DAVISVP2,2013-07-13 09:06:00,
2013-07-13 05:07:00,62.2,58.6,29.31,ESE,110,0.0,4.0,88,0.00,,,0.00,WUHU216DAVISVP2,2013-07-13 09:07:00,
2013-07-13 05:09:00,62.2,58.6,29.31,ESE,110,0.0,4.0,88,0.00,,,0.00,WUHU216DAVISVP2,2013-07-13 09:09:00,
2013-07-13 05:11:00,62.2,58.6,29.31,ESE,110,0.0,4.0,88,0.00,,,0.00,WUHU216DAVISVP2,2013-07-13 09:11:00,
2013-07-13 05:12:00,62.2,58.6,29.31,ESE,110,0.0,4.0,88,0.00,,,0.00,WUHU216DAVISVP2,2013-07-13 09:12:00,
2013-07-13 05:15:00,62.2,58.6,29.31,ESE,110,1.0,4.0,88,0.00,,,0.00,WUHU216DAVISVP2,2013-07-13 09:15:00,
2013-07-13 05:16:00,62.2,58.6,29.31,ESE,110,2.0,4.0,88,0.00,,,0.00,WUHU216DAVISVP2,2013-07-13 09:16:00,
2013-07-13 05:17:00,62.1,58.5,29.31,ESE,110,2.0,4.0,88,0.00,,,0.00,WUHU216DAVISVP2,2013-07-13 09:17:00,
2013-07-13 05:20:00,62.1,58.5,29.32,ESE,110,1.0,4.0,88,0.00,,,0.00,WUHU216DAVISVP2,2013-07-13 09:20:00,
2013-07-13 05:21:00,62.1,58.5,29.32,ESE,110,1.0,4.0,88,0.00,,,0.00,WUHU216DAVISVP2,2013-07-13 09:21:00,
2013-07-13 05:22:00,62.0,58.4,29.31,ESE,110,3.0,4.0,88,0.00,,,0.00,WUHU216DAVISVP2,2013-07-13 09:22:00,
2013-07-13 05:23:00,62.0,58.4,29.31,ESE,110,2.0,4.0,88,0.00,,,0.00,WUHU216DAVISVP2,2013-07-13 09:23:00,
2013-07-13 05:26:00,62.0,58.4,29.32,ESE,110,0.0,4.0,88,0.00,,,0.00,WUHU216DAVISVP2,2013-07-13 09:26:00,
2013-07-13 05:27:00,62.0,58.4,29.31,ESE,110,2.0,4.0,88,0.00,,,0.00,WUHU216DAVISVP2,2013-07-13 09:27:00,
2013-07-13 05:28:00,62.0,58.4,29.31,ESE,110,0.0,4.0,88,0.00,,,0.00,WUHU216DAVISVP2,2013-07-13 09:28:00,
2013-07-13 05:31:00,61.9,58.3,29.31,ESE,110,0.0,4.0,88,0.00,,,0.00,WUHU216DAVISVP2,2013-07-13 09:31:00,
2013-07-13 05:32:00,61.9,58.3,29.32,ESE,110,0.0,4.0,88,0.00,,,0.00,WUHU216DAVISVP2,2013-07-13 09:32:00,
2013-07-13 05:33:00,61.9,58.3,29.31,ESE,110,0.0,4.0,88,0.00,,,0.00,WUHU216DAVISVP2,2013-07-13 09:33:00,
2013-07-13 05:36:00,61.8,58.2,29.31,ESE,110,0.0,4.0,88,0.00,,,0.00,WUHU216DAVISVP2,2013-07-13 09:36:00,
2013-07-13 05:37:00,61.8,58.2,29.31,ESE,110,0.0,4.0,88,0.00,,,0.00,WUHU216DAVISVP2,2013-07-13 09:37:00,
2013-07-13 05:38:00,61.8,58.2,29.31,ESE,110,0.0,4.0,88,0.00,,,0.00,WUHU216DAVISVP2,2013-07-13 09:38:00,
2013-07-13 05:39:00,61.8,58.2,29.31,ESE,110,0.0,4.0,88,0.00,,,0.00,WUHU216DAVISVP2,2013-07-13 09:39:00,
2013-07-13 05:42:00,61.7,58.4,29.31,ESE,110,0.0,4.0,89,0.00,,,0.00,WUHU216DAVISVP2,2013-07-13 09:42:00,
2013-07-13 05:43:00,61.7,58.4,29.31,ESE,110,0.0,4.0,89,0.00,,,0.00,WUHU216DAVISVP2,2013-07-13 09:43:00,
2013-07-13 05:44:00,61.7,58.4,29.31,ESE,110,0.0,4.0,89,0.00,,,0.00,WUHU216DAVISVP2,2013-07-13 09:44:00,
2013-07-13 05:47:00,61.6,58.3,29.31,ESE,110,0.0,1.0,89,0.00,,,0.00,WUHU216DAVISVP2,2013-07-13 09:47:00,
2013-07-13 05:48:00,61.6,58.3,29.31,ESE,110,0.0,1.0,89,0.00,,,0.00,WUHU216DAVISVP2,2013-07-13 09:48:00,
2013-07-13 05:49:00,61.6,58.3,29.31,ESE,110,0.0,1.0,89,0.00,,,0.00,WUHU216DAVISVP2,2013-07-13 09:49:00,
2013-07-13 05:52:00,61.4,58.1,29.31,ESE,110,0.0,1.0,89,0.00,,,0.00,WUHU216DAVISVP2,2013-07-13 09:52:00,
2013-07-13 05:53:00,61.4,58.1,29.31,ESE,110,0.0,1.0,89,0.00,,,0.00,WUHU216DAVISVP2,2013-07-13 09:53:00,
2013-07-13 05:54:00,61.4,58.1,29.31,ESE,110,0.0,1.0,89,0.00,,,0.00,WUHU216DAVISVP2,2013-07-13 09:54:00,
2013-07-13 05:57:00,61.2,57.9,29.31,ESE,110,0.0,2.0,89,0.00,,,0.00,WUHU216DAVISVP2,2013-07-13 09:57:00,
2013-07-13 05:58:00,61.1,58.1,29.31,ESE,110,0.0,2.0,90,0.00,,,0.00,WUHU216DAVISVP2,2013-07-13 09:58:00,
2013-07-13 05:59:00,61.1,57.8,29.31,ESE,110,0.0,2.0,89,0.00,,,0.00,WUHU216DAVISVP2,2013-07-13 09:59:00,
2013-07-13 06:00:00,61.0,58.0,29.31,ESE,110,0.0,2.0,90,0.00,,,0.00,WUHU216DAVISVP2,2013-07-13 10:00:00,
2013-07-13 06:02:00,60.9,57.9,29.31,ESE,110,1.0,2.0,90,0.00,,,0.00,WUHU216DAVISVP2,2013-07-13 10:02:00,
2013-07-13 06:03:00,60.9,57.9,29.31,ESE,110,0.0,2.0,90,0.00,,,0.00,WUHU216DAVISVP2,2013-07-13 10:03:00,
2013-07-13 06:04:00,60.9,57.9,29.31,ESE,110,0.0,2.0,90,0.00,,,0.00,WUHU216DAVISVP2,2013-07-13 10:04:00,
2013-07-13 06:05:00,60.8,57.8,29.31,ESE,110,1.0,2.0,90,0.00,,,0.00,WUHU216DAVISVP2,2013-07-13 10:05:00,
2013-07-13 06:07:00,60.8,57.8,29.31,ESE,110,2.0,2.0,90,0.00,,,0.00,WUHU216DAVISVP2,2013-07-13 10:07:00,
2013-07-13 06:09:00,60.7,58.0,29.31,ESE,110,1.0,4.0,91,0.00,,,0.00,WUHU216DAVISVP2,2013-07-13 10:09:00,
2013-07-13 06:10:00,60.7,58.0,29.31,ESE,110,1.0,5.0,91,0.00,,,0.00,WUHU216DAVISVP2,2013-07-13 10:10:00,
2013-07-13 06:12:00,60.7,58.1,29.31,ESE,110,1.0,5.0,91,0.00,,,0.00,WUHU216DAVISVP2,2013-07-13 10:12:00,
2013-07-13 06:14:00,60.6,58.0,29.31,ESE,110,1.0,5.0,91,0.00,,,0.00,WUHU216DAVISVP2,2013-07-13 10:14:00,
2013-07-13 06:15:00,60.6,58.0,29.31,ESE,110,0.0,5.0,91,0.00,,,0.00,WUHU216DAVISVP2,2013-07-13 10:15:00,
2013-07-13 06:17:00,60.5,57.9,29.31,ESE,110,1.0,5.0,91,0.00,,,0.00,WUHU216DAVISVP2,2013-07-13 10:17:00,
2013-07-13 06:19:00,60.5,57.9,29.31,ESE,110,0.0,5.0,91,0.00,,,0.00,WUHU216DAVISVP2,2013-07-13 10:19:00,
2013-07-13 06:20:00,60.4,57.8,29.31,ESE,110,0.0,5.0,91,0.00,,,0.00,WUHU216DAVISVP2,2013-07-13 10:20:00,
2013-07-13 06:21:00,60.4,57.8,29.31,ESE,110,0.0,5.0,91,0.00,,,0.00,WUHU216DAVISVP2,2013-07-13 10:21:00,
2013-07-13 06:22:00,60.4,57.8,29.31,ESE,110,0.0,5.0,91,0.00,,,0.00,WUHU216DAVISVP2,2013-07-13 10:22:00,
2013-07-13 06:24:00,60.4,57.8,29.31,ESE,110,0.0,5.0,91,0.00,,,0.00,WUHU216DAVISVP2,2013-07-13 10:24:00,
2013-07-13 06:25:00,60.4,57.7,29.31,ESE,110,1.0,5.0,91,0.00,,,0.00,WUHU216DAVISVP2,2013-07-13 10:25:00,
2013-07-13 06:26:00,60.4,58.0,29.31,ESE,110,1.0,5.0,92,0.00,,,0.00,WUHU216DAVISVP2,2013-07-13 10:26:00,
2013-07-13 06:27:00,60.4,58.0,29.31,ESE,110,0.0,4.0,92,0.00,,,0.00,WUHU216DAVISVP2,2013-07-13 10:27:00,
2013-07-13 06:29:00,60.5,58.1,29.31,ESE,110,2.0,4.0,92,0.00,,,0.00,WUHU216DAVISVP2,2013-07-13 10:29:00,
2013-07-13 06:30:00,60.5,58.1,29.31,ESE,110,2.0,4.0,92,0.00,,,0.00,WUHU216DAVISVP2,2013-07-13 10:30:00,
2013-07-13 06:31:00,60.5,58.1,29.32,ESE,110,1.0,4.0,92,0.00,,,0.00,WUHU216DAVISVP2,2013-07-13 10:31:00,
2013-07-13 06:32:00,60.5,58.1,29.32,ESE,110,0.0,4.0,92,0.00,,,0.00,WUHU216DAVISVP2,2013-07-13 10:32:00,
2013-07-13 06:35:00,60.5,58.1,29.31,ESE,110,0.0,4.0,92,0.00,,,0.00,WUHU216DAVISVP2,2013-07-13 10:35:00,
2013-07-13 06:36:00,60.5,58.2,29.31,ESE,110,0.0,4.0,92,0.00,,,0.00,WUHU216DAVISVP2,2013-07-13 10:36:00,
2013-07-13 06:38:00,60.5,58.2,29.31,ESE,110,0.0,4.0,92,0.00,,,0.00,WUHU216DAVISVP2,2013-07-13 10:38:00,
2013-07-13 06:40:00,60.5,58.2,29.31,ESE,110,0.0,4.0,92,0.00,,,0.00,WUHU216DAVISVP2,2013-07-13 10:40:00,
2013-07-13 06:41:00,60.5,58.2,29.32,ESE,110,0.0,4.0,92,0.00,,,0.00,WUHU216DAVISVP2,2013-07-13 10:41:00,
2013-07-13 06:43:00,60.5,58.2,29.32,ESE,110,2.0,4.0,92,0.00,,,0.00,WUHU216DAVISVP2,2013-07-13 10:43:00,
2013-07-13 06:45:00,60.5,58.2,29.32,ESE,110,2.0,4.0,92,0.00,,,0.00,WUHU216DAVISVP2,2013-07-13 10:45:00,
2013-07-13 06:46:00,60.4,58.1,29.32,ESE,110,2.0,4.0,92,0.00,,,0.00,WUHU216DAVISVP2,2013-07-13 10:46:00,
2013-07-13 06:48:00,60.4,58.1,29.33,ESE,110,0.0,4.0,92,0.00,,,0.00,WUHU216DAVISVP2,2013-07-13 10:48:00,
2013-07-13 06:50:00,60.4,58.1,29.33,ESE,110,0.0,4.0,92,0.00,,,0.00,WUHU216DAVISVP2,2013-07-13 10:50:00,
2013-07-13 06:51:00,60.4,58.1,29.33,ESE,110,1.0,4.0,92,0.00,,,0.00,WUHU216DAVISVP2,2013-07-13 10:51:00,
2013-07-13 06:53:00,60.4,58.0,29.33,ESE,110,0.0,4.0,92,0.00,,,0.00,WUHU216DAVISVP2,2013-07-13 10:53:00,
2013-07-13 06:54:00,60.4,58.0,29.33,ESE,110,0.0,4.0,92,0.00,,,0.00,WUHU216DAVISVP2,2013-07-13 10:54:00,
2013-07-13 06:55:00,60.4,58.0,29.33,ESE,110,1.0,4.0,92,0.00,,,0.00,WUHU216DAVISVP2,2013-07-13 10:55:00,
2013-07-13 06:56:00,60.4,58.0,29.33,ESE,110,1.0,4.0,92,0.00,,,0.00,WUHU216DAVISVP2,2013-07-13 10:56:00,
2013-07-13 06:58:00,60.5,58.1,29.33,ESE,110,0.0,4.0,92,0.00,,,0.00,WUHU216DAVISVP2,2013-07-13 10:58:00,
2013-07-13 06:59:00,60.5,58.1,29.33,ESE,110,1.0,4.0,92,0.00,,,0.00,WUHU216DAVISVP2,2013-07-13 10:59:00,
2013-07-13 07:00:00,60.5,58.1,29.33,ESE,110,0.0,4.0,92,0.00,,,0.00,WUHU216DAVISVP2,2013-07-13 11:00:00,
2013-07-13 07:01:00,60.5,58.1,29.33,ESE,110,2.0,4.0,92,0.00,,,0.00,WUHU216DAVISVP2,2013-07-13 11:01:00,
2013-07-13 07:03:00,60.6,58.2,29.33,ESE,110,1.0,5.0,92,0.00,,,0.00,WUHU216DAVISVP2,2013-07-13 11:03:00,
2013-07-13 07:04:00,60.7,58.3,29.33,ESE,110,0.0,5.0,92,0.00,,,0.00,WUHU216DAVISVP2,2013-07-13 11:04:00,
2013-07-13 07:06:00,60.7,58.3,29.33,ESE,110,1.0,5.0,92,0.00,,,0.00,WUHU216DAVISVP2,2013-07-13 11:06:00,
2013-07-13 07:07:00,60.7,58.3,29.33,ESE,110,4.0,5.0,92,0.00,,,0.00,WUHU216DAVISVP2,2013-07-13 11:07:00,
2013-07-13 07:08:00,60.8,58.4,29.33,ESE,110,2.0,5.0,92,0.00,,,0.00,WUHU216DAVISVP2,2013-07-13 11:08:00,
2013-07-13 07:09:00,60.9,58.5,29.33,ESE,110,1.0,5.0,92,0.00,,,0.00,WUHU216DAVISVP2,2013-07-13 11:09:00,
2013-07-13 07:11:00,61.0,58.6,29.33,ESE,110,2.0,5.0,92,0.00,,,0.00,WUHU216DAVISVP2,2013-07-13 11:11:00,
2013-07-13 07:12:00,61.0,58.6,29.33,ESE,110,1.0,5.0,92,0.00,,,0.00,WUHU216DAVISVP2,2013-07-13 11:12:00,
2013-07-13 07:14:00,61.1,58.7,29.33,ESE,110,1.0,5.0,92,0.00,,,0.00,WUHU216DAVISVP2,2013-07-13 11:14:00,
2013-07-13 07:16:00,61.2,58.8,29.33,ESE,110,2.0,5.0,92,0.00,,,0.00,WUHU216DAVISVP2,2013-07-13 11:16:00,
2013-07-13 07:17:00,61.3,58.9,29.33,ESE,110,1.0,5.0,92,0.00,,,0.00,WUHU216DAVISVP2,2013-07-13 11:17:00,
2013-07-13 07:19:00,61.4,59.0,29.33,ESE,110,1.0,5.0,92,0.00,,,0.00,WUHU216DAVISVP2,2013-07-13 11:19:00,
2013-07-13 07:21:00,61.6,59.2,29.33,ESE,110,2.0,5.0,92,0.00,,,0.00,WUHU216DAVISVP2,2013-07-13 11:21:00,
2013-07-13 07:22:00,61.7,59.3,29.33,ENE,65,5.0,5.0,92,0.00,,,0.00,WUHU216DAVISVP2,2013-07-13 11:22:00,
2013-07-13 07:24:00,61.9,59.2,29.33,ENE,72,4.0,5.0,91,0.00,,,0.00,WUHU216DAVISVP2,2013-07-13 11:24:00,
2013-07-13 07:26:00,62.1,59.4,29.33,East,83,3.0,5.0,91,0.00,,,0.00,WUHU216DAVISVP2,2013-07-13 11:26:00,
2013-07-13 07:27:00,62.2,59.5,29.33,East,83,1.0,5.0,91,0.00,,,0.00,WUHU216DAVISVP2,2013-07-13 11:27:00,
2013-07-13 07:29:00,62.4,59.4,29.33,East,83,2.0,5.0,90,0.00,,,0.00,WUHU216DAVISVP2,2013-07-13 11:29:00,
2013-07-13 07:30:00,62.4,59.4,29.33,East,83,2.0,5.0,90,0.00,,,0.00,WUHU216DAVISVP2,2013-07-13 11:30:00,
2013-07-13 07:31:00,62.5,59.5,29.33,East,83,2.0,5.0,90,0.00,,,0.00,WUHU216DAVISVP2,2013-07-13 11:31:00,
2013-07-13 07:32:00,62.6,59.6,29.33,East,83,0.0,5.0,90,0.00,,,0.00,WUHU216DAVISVP2,2013-07-13 11:32:00,
2013-07-13 07:35:00,62.8,59.8,29.33,East,83,2.0,5.0,90,0.00,,,0.00,WUHU216DAVISVP2,2013-07-13 11:35:00,
2013-07-13 07:36:00,62.9,59.9,29.33,East,83,2.0,5.0,90,0.00,,,0.00,WUHU216DAVISVP2,2013-07-13 11:36:00,
2013-07-13 07:37:00,62.9,59.9,29.33,East,83,2.0,5.0,90,0.00,,,0.00,WUHU216DAVISVP2,2013-07-13 11:37:00,
2013-07-13 07:40:00,63.1,59.8,29.33,East,83,0.0,5.0,89,0.00,,,0.00,WUHU216DAVISVP2,2013-07-13 11:40:00,
2013-07-13 07:41:00,63.3,60.0,29.33,East,83,0.0,5.0,89,0.00,,,0.00,WUHU216DAVISVP2,2013-07-13 11:41:00,
2013-07-13 07:42:00,63.4,60.1,29.33,East,83,2.0,5.0,89,0.00,,,0.00,WUHU216DAVISVP2,2013-07-13 11:42:00,
2013-07-13 07:45:00,63.5,60.2,29.33,East,83,1.0,5.0,89,0.00,,,0.00,WUHU216DAVISVP2,2013-07-13 11:45:00,
2013-07-13 07:46:00,63.7,60.4,29.33,East,83,2.0,5.0,89,0.00,,,0.00,WUHU216DAVISVP2,2013-07-13 11:46:00,
2013-07-13 07:47:00,63.7,60.4,29.33,East,83,2.0,5.0,89,0.00,,,0.00,WUHU216DAVISVP2,2013-07-13 11:47:00,
2013-07-13 07:48:00,63.8,60.5,29.33,East,83,1.0,5.0,89,0.00,,,0.00,WUHU216DAVISVP2,2013-07-13 11:48:00,
2013-07-13 07:50:00,64.0,60.7,29.33,East,83,4.0,5.0,89,0.00,,,0.00,WUHU216DAVISVP2,2013-07-13 11:50:00,
2013-07-13 07:52:00,64.1,60.5,29.33,East,93,3.0,6.0,88,0.00,,,0.00,WUHU216DAVISVP2,2013-07-13 11:52:00,
2013-07-13 07:53:00,64.2,60.6,29.33,East,94,4.0,6.0,88,0.00,,,0.00,WUHU216DAVISVP2,2013-07-13 11:53:00,
2013-07-13 07:55:00,64.3,60.7,29.33,East,94,4.0,6.0,88,0.00,,,0.00,WUHU216DAVISVP2,2013-07-13 11:55:00,
2013-07-13 07:57:00,64.4,60.8,29.33,East,94,2.0,6.0,88,0.00,,,0.00,WUHU216DAVISVP2,2013-07-13 11:57:00,
2013-07-13 07:58:00,64.5,60.9,29.33,ESE,107,4.0,6.0,88,0.00,,,0.00,WUHU216DAVISVP2,2013-07-13 11:58:00,
2013-07-13 08:00:00,64.5,60.5,29.32,ESE,120,5.0,6.0,87,0.00,,,0.00,WUHU216DAVISVP2,2013-07-13 12:00:00,
2013-07-13 08:01:00,64.5,60.5,29.33,SE,129,0.0,6.0,87,0.00,,,0.00,WUHU216DAVISVP2,2013-07-13 12:01:00,
2013-07-13 08:02:00,64.4,60.4,29.33,SE,127,2.0,6.0,87,0.00,,,0.00,WUHU216DAVISVP2,2013-07-13 12:02:00,
2013-07-13 08:03:00,64.4,60.4,29.32,SE,133,2.0,6.0,87,0.00,,,0.00,WUHU216DAVISVP2,2013-07-13 12:03:00,
2013-07-13 08:05:00,64.4,60.4,29.32,ESE,123,2.0,6.0,87,0.00,,,0.00,WUHU216DAVISVP2,2013-07-13 12:05:00,
2013-07-13 08:06:00,64.4,60.4,29.32,SE,124,0.0,6.0,87,0.00,,,0.00,WUHU216DAVISVP2,2013-07-13 12:06:00,
2013-07-13 08:07:00,64.4,60.4,29.32,SE,124,0.0,6.0,87,0.00,,,0.00,WUHU216DAVISVP2,2013-07-13 12:07:00,
2013-07-13 08:08:00,64.5,60.5,29.32,SE,124,0.0,6.0,87,0.00,,,0.00,WUHU216DAVISVP2,2013-07-13 12:08:00,
2013-07-13 08:10:00,64.6,60.6,29.32,ESE,114,1.0,6.0,87,0.00,,,0.00,WUHU216DAVISVP2,2013-07-13 12:10:00,
2013-07-13 08:11:00,64.6,60.6,29.32,ESE,117,2.0,6.0,87,0.00,,,0.00,WUHU216DAVISVP2,2013-07-13 12:11:00,
2013-07-13 08:12:00,64.7,60.7,29.32,ESE,111,4.0,6.0,87,0.00,,,0.00,WUHU216DAVISVP2,2013-07-13 12:12:00,
2013-07-13 08:13:00,64.7,60.7,29.32,East,99,2.0,6.0,87,0.00,,,0.00,WUHU216DAVISVP2,2013-07-13 12:13:00,
2013-07-13 08:16:00,64.8,60.8,29.32,East,96,4.0,6.0,87,0.00,,,0.00,WUHU216DAVISVP2,2013-07-13 12:16:00,
2013-07-13 08:17:00,65.0,61.0,29.32,SE,125,2.0,6.0,87,0.00,,,0.00,WUHU216DAVISVP2,2013-07-13 12:17:00,
2013-07-13 08:18:00,65.0,61.3,29.32,East,82,4.0,5.0,88,0.00,,,0.00,WUHU216DAVISVP2,2013-07-13 12:18:00,
2013-07-13 08:19:00,65.0,61.3,29.32,East,86,5.0,5.0,88,0.00,,,0.00,WUHU216DAVISVP2,2013-07-13 12:19:00,
2013-07-13 08:21:00,65.2,61.5,29.32,East,86,1.0,5.0,88,0.00,,,0.00,WUHU216DAVISVP2,2013-07-13 12:21:00,
2013-07-13 08:22:00,65.3,61.6,29.32,East,86,0.0,5.0,88,0.00,,,0.00,WUHU216DAVISVP2,2013-07-13 12:22:00,
2013-07-13 08:24:00,65.5,61.5,29.32,East,86,1.0,5.0,87,0.00,,,0.00,WUHU216DAVISVP2,2013-07-13 12:24:00,
2013-07-13 08:26:00,65.7,61.7,29.31,East,86,2.0,5.0,87,0.00,,,0.00,WUHU216DAVISVP2,2013-07-13 12:26:00,
2013-07-13 08:27:00,65.7,61.7,29.31,ESE,111,3.0,5.0,87,0.00,,,0.00,WUHU216DAVISVP2,2013-07-13 12:27:00,
2013-07-13 08:28:00,65.8,61.8,29.31,ESE,120,1.0,5.0,87,0.00,,,0.00,WUHU216DAVISVP2,2013-07-13 12:28:00,
2013-07-13 08:29:00,65.8,61.8,29.31,ESE,115,3.0,5.0,87,0.00,,,0.00,WUHU216DAVISVP2,2013-07-13 12:29:00,
2013-07-13 08:31:00,65.8,61.8,29.31,SE,134,3.0,5.0,87,0.00,,,0.00,WUHU216DAVISVP2,2013-07-13 12:31:00,
2013-07-13 08:33:00,65.8,61.8,29.31,SE,135,4.0,5.0,87,0.00,,,0.00,WUHU216DAVISVP2,2013-07-13 12:33:00,
2013-07-13 08:34:00,65.8,61.8,29.31,ESE,120,3.0,5.0,87,0.00,,,0.00,WUHU216DAVISVP2,2013-07-13 12:34:00,
2013-07-13 08:36:00,65.8,61.8,29.31,East,93,5.0,5.0,87,0.00,,,0.00,WUHU216DAVISVP2,2013-07-13 12:36:00,
2013-07-13 08:38:00,65.9,61.9,29.32,ESE,115,7.0,8.0,87,0.00,,,0.00,WUHU216DAVISVP2,2013-07-13 12:38:00,
2013-07-13 08:39:00,65.9,61.9,29.32,SSE,152,5.0,8.0,87,0.00,,,0.00,WUHU216DAVISVP2,2013-07-13 12:39:00,
2013-07-13 08:41:00,66.0,62.0,29.32,ESE,116,3.0,8.0,87,0.00,,,0.00,WUHU216DAVISVP2,2013-07-13 12:41:00,
2013-07-13 08:42:00,66.0,62.0,29.32,ESE,116,3.0,8.0,87,0.00,,,0.00,WUHU216DAVISVP2,2013-07-13 12:42:00,
2013-07-13 08:43:00,66.0,62.0,29.32,SE,142,2.0,8.0,87,0.00,,,0.00,WUHU216DAVISVP2,2013-07-13 12:43:00,
2013-07-13 08:44:00,66.1,62.1,29.32,SE,124,3.0,8.0,87,0.00,,,0.00,WUHU216DAVISVP2,2013-07-13 12:44:00,
2013-07-13 08:46:00,66.2,62.2,29.31,SSE,152,0.0,9.0,87,0.00,,,0.00,WUHU216DAVISVP2,2013-07-13 12:46:00,
2013-07-13 08:47:00,66.2,62.2,29.31,SSE,150,1.0,9.0,87,0.00,,,0.00,WUHU216DAVISVP2,2013-07-13 12:47:00,
2013-07-13 08:48:00,66.3,62.3,29.31,ESE,116,1.0,9.0,87,0.00,,,0.00,WUHU216DAVISVP2,2013-07-13 12:48:00,
2013-07-13 08:49:00,66.3,62.3,29.31,ESE,106,6.0,9.0,87,0.00,,,0.00,WUHU216DAVISVP2,2013-07-13 12:49:00,
2013-07-13 08:50:00,66.5,62.5,29.31,ENE,75,4.0,9.0,87,0.00,,,0.00,WUHU216DAVISVP2,2013-07-13 12:50:00,
2013-07-13 08:52:00,66.6,62.6,29.31,East,96,1.0,9.0,87,0.00,,,0.00,WUHU216DAVISVP2,2013-07-13 12:52:00,
2013-07-13 08:53:00,66.7,62.7,29.31,ESE,109,7.0,9.0,87,0.00,,,0.00,WUHU216DAVISVP2,2013-07-13 12:53:00,
2013-07-13 08:54:00,66.7,62.7,29.31,ESE,115,5.0,9.0,87,0.00,,,0.00,WUHU216DAVISVP2,2013-07-13 12:54:00,
2013-07-13 08:55:00,66.8,62.8,29.31,East,94,6.0,9.0,87,0.00,,,0.00,WUHU216DAVISVP2,2013-07-13 12:55:00,
2013-07-13 08:57:00,66.9,62.9,29.32,SE,131,0.0,9.0,87,0.00,,,0.00,WUHU216DAVISVP2,2013-07-13 12:57:00,
2013-07-13 08:59:00,67.1,63.1,29.32,East,97,4.0,9.0,87,0.00,,,0.00,WUHU216DAVISVP2,2013-07-13 12:59:00,
2013-07-13 09:00:00,67.3,63.3,29.32,ESE,105,0.0,9.0,87,0.00,,,0.00,WUHU216DAVISVP2,2013-07-13 13:00:00,
2013-07-13 09:02:00,67.6,63.6,29.32,ESE,106,2.0,9.0,87,0.00,,,0.00,WUHU216DAVISVP2,2013-07-13 13:02:00,
2013-07-13 09:04:00,67.7,63.4,29.32,ESE,108,0.0,8.0,86,0.00,,,0.00,WUHU216DAVISVP2,2013-07-13 13:04:00,
2013-07-13 09:05:00,67.8,63.5,29.32,ESE,108,2.0,8.0,86,0.00,,,0.00,WUHU216DAVISVP2,2013-07-13 13:05:00,
2013-07-13 09:07:00,68.0,63.7,29.32,ESE,115,4.0,8.0,86,0.00,,,0.00,WUHU216DAVISVP2,2013-07-13 13:07:00,
2013-07-13 09:08:00,68.0,63.7,29.32,ESE,114,3.0,8.0,86,0.00,,,0.00,WUHU216DAVISVP2,2013-07-13 13:08:00,
2013-07-13 09:09:00,68.1,63.8,29.32,SE,139,5.0,8.0,86,0.00,,,0.00,WUHU216DAVISVP2,2013-07-13 13:09:00,
2013-07-13 09:10:00,68.1,63.8,29.32,ESE,117,2.0,8.0,86,0.00,,,0.00,WUHU216DAVISVP2,2013-07-13 13:10:00,
2013-07-13 09:13:00,68.2,63.9,29.32,ESE,114,2.0,8.0,86,0.00,,,0.00,WUHU216DAVISVP2,2013-07-13 13:13:00,
2013-07-13 09:15:00,68.3,64.0,29.32,ESE,118,2.0,7.0,86,0.00,,,0.00,WUHU216DAVISVP2,2013-07-13 13:15:00,
2013-07-13 09:16:00,68.4,64.1,29.32,East,99,2.0,7.0,86,0.00,,,0.00,WUHU216DAVISVP2,2013-07-13 13:16:00,
2013-07-13 09:18:00,68.5,64.2,29.32,ESE,116,4.0,6.0,86,0.00,,,0.00,WUHU216DAVISVP2,2013-07-13 13:18:00,
2013-07-13 09:20:00,68.8,64.5,29.32,East,89,6.0,6.0,86,0.00,,,0.00,WUHU216DAVISVP2,2013-07-13 13:20:00,
2013-07-13 09:21:00,68.8,64.5,29.32,ESE,112,5.0,7.0,86,0.00,,,0.00,WUHU216DAVISVP2,2013-07-13 13:21:00,
2013-07-13 09:23:00,68.9,64.6,29.32,ESE,120,5.0,7.0,86,0.00,,,0.00,WUHU216DAVISVP2,2013-07-13 13:23:00,
2013-07-13 09:24:00,69.0,64.7,29.32,ESE,114,4.0,7.0,86,0.00,,,0.00,WUHU216DAVISVP2,2013-07-13 13:24:00,
2013-07-13 09:25:00,69.1,64.7,29.32,SSE,164,2.0,7.0,86,0.00,,,0.00,WUHU216DAVISVP2,2013-07-13 13:25:00,
2013-07-13 09:26:00,69.2,64.8,29.32,SE,143,1.0,7.0,86,0.00,,,0.00,WUHU216DAVISVP2,2013-07-13 13:26:00,
2013-07-13 09:28:00,69.3,64.9,29.32,SE,138,5.0,7.0,86,0.00,,,0.00,WUHU216DAVISVP2,2013-07-13 13:28:00,
2013-07-13 09:29:00,69.4,65.0,29.32,ESE,119,3.0,7.0,86,0.00,,,0.00,WUHU216DAVISVP2,2013-07-13 13:29:00,
2013-07-13 09:30:00,69.5,65.1,29.32,ESE,120,0.0,7.0,86,0.00,,,0.00,WUHU216DAVISVP2,2013-07-13 13:30:00,
2013-07-13 09:31:00,69.5,64.8,29.32,ESE,116,3.0,7.0,85,0.00,,,0.00,WUHU216DAVISVP2,2013-07-13 13:31:00,
2013-07-13 09:34:00,69.6,64.6,29.32,SSE,147,6.0,8.0,84,0.00,,,0.00,WUHU216DAVISVP2,2013-07-13 13:34:00,
2013-07-13 09:36:00,69.6,64.9,29.33,ESE,108,7.0,9.0,85,0.00,,,0.00,WUHU216DAVISVP2,2013-07-13 13:36:00,
2013-07-13 09:37:00,69.6,64.9,29.33,ESE,110,1.0,9.0,85,0.00,,,0.00,WUHU216DAVISVP2,2013-07-13 13:37:00,
2013-07-13 09:39:00,69.7,65.0,29.33,ESE,118,6.0,9.0,85,0.00,,,0.00,WUHU216DAVISVP2,2013-07-13 13:39:00,
2013-07-13 09:41:00,69.8,64.8,29.33,ESE,114,5.0,10.0,84,0.00,,,0.00,WUHU216DAVISVP2,2013-07-13 13:41:00,
2013-07-13 09:42:00,69.7,64.7,29.33,SE,125,4.0,10.0,84,0.00,,,0.00,WUHU216DAVISVP2,2013-07-13 13:42:00,
2013-07-13 09:44:00,69.8,65.1,29.33,East,80,5.0,10.0,85,0.00,,,0.00,WUHU216DAVISVP2,2013-07-13 13:44:00,
2013-07-13 09:46:00,69.9,65.2,29.33,East,97,7.0,10.0,85,0.00,,,0.00,WUHU216DAVISVP2,2013-07-13 13:46:00,
2013-07-13 09:47:00,69.9,65.2,29.33,East,96,7.0,10.0,85,0.00,,,0.00,WUHU216DAVISVP2,2013-07-13 13:47:00,
2013-07-13 09:49:00,70.0,65.3,29.33,East,96,7.0,10.0,85,0.00,,,0.00,WUHU216DAVISVP2,2013-07-13 13:49:00,
2013-07-13 09:51:00,70.1,65.4,29.33,East,85,0.0,10.0,85,0.00,,,0.00,WUHU216DAVISVP2,2013-07-13 13:51:00,
2013-07-13 09:52:00,70.2,65.5,29.33,East,86,0.0,10.0,85,0.00,,,0.00,WUHU216DAVISVP2,2013-07-13 13:52:00,
2013-07-13 09:54:00,70.3,65.3,29.33,ENE,69,4.0,10.0,84,0.00,,,0.00,WUHU216DAVISVP2,2013-07-13 13:54:00,
2013-07-13 09:56:00,70.5,65.5,29.33,East,91,3.0,10.0,84,0.00,,,0.00,WUHU216DAVISVP2,2013-07-13 13:56:00,
2013-07-13 09:57:00,70.5,65.5,29.33,ESE,108,4.0,10.0,84,0.00,,,0.00,WUHU216DAVISVP2,2013-07-13 13:57:00,
2013-07-13 09:59:00,70.7,65.7,29.33,East,81,5.0,10.0,84,0.00,,,0.00,WUHU216DAVISVP2,2013-07-13 13:59:00,
2013-07-13 10:00:00,70.8,66.1,29.33,East,94,6.0,10.0,85,0.00,,,0.00,WUHU216DAVISVP2,2013-07-13 14:00:00,
2013-07-13 10:02:00,70.9,65.9,29.33,ESE,111,6.0,10.0,84,0.00,,,0.00,WUHU216DAVISVP2,2013-07-13 14:02:00,
2013-07-13 10:03:00,71.0,66.0,29.33,ESE,115,5.0,10.0,84,0.00,,,0.00,WUHU216DAVISVP2,2013-07-13 14:03:00,
2013-07-13 10:05:00,71.0,65.6,29.33,East,92,2.0,10.0,83,0.00,,,0.00,WUHU216DAVISVP2,2013-07-13 14:05:00,
2013-07-13 10:07:00,71.1,65.7,29.33,ENE,75,7.0,9.0,83,0.00,,,0.00,WUHU216DAVISVP2,2013-07-13 14:07:00,
2013-07-13 10:08:00,71.2,65.8,29.33,ESE,104,4.0,9.0,83,0.00,,,0.00,WUHU216DAVISVP2,2013-07-13 14:08:00,
2013-07-13 10:10:00,71.3,65.9,29.33,East,85,5.0,8.0,83,0.00,,,0.00,WUHU216DAVISVP2,2013-07-13 14:10:00,
2013-07-13 10:12:00,71.4,66.0,29.33,ENE,78,2.0,8.0,83,0.00,,,0.00,WUHU216DAVISVP2,2013-07-13 14:12:00,
2013-07-13 10:13:00,71.5,66.1,29.33,East,80,3.0,8.0,83,0.00,,,0.00,WUHU216DAVISVP2,2013-07-13 14:13:00,
2013-07-13 10:15:00,71.7,66.3,29.33,ENE,78,6.0,8.0,83,0.00,,,0.00,WUHU216DAVISVP2,2013-07-13 14:15:00,
2013-07-13 10:17:00,71.8,66.1,29.33,ESE,106,8.0,8.0,82,0.00,,,0.00,WUHU216DAVISVP2,2013-07-13 14:17:00,
2013-07-13 10:18:00,71.9,66.2,29.33,SE,141,5.0,9.0,82,0.00,,,0.00,WUHU216DAVISVP2,2013-07-13 14:18:00,
2013-07-13 10:20:00,72.1,66.4,29.33,ENE,78,8.0,10.0,82,0.00,,,0.00,WUHU216DAVISVP2,2013-07-13 14:20:00,
2013-07-13 10:21:00,72.1,66.4,29.33,ESE,112,7.0,10.0,82,0.00,,,0.00,WUHU216DAVISVP2,2013-07-13 14:21:00,
2013-07-13 10:22:00,72.2,66.5,29.33,ESE,112,6.0,10.0,82,0.00,,,0.00,WUHU216DAVISVP2,2013-07-13 14:22:00,
2013-07-13 10:23:00,72.2,66.1,29.33,ESE,113,2.0,10.0,81,0.00,,,0.00,WUHU216DAVISVP2,2013-07-13 14:23:00,
2013-07-13 10:24:00,72.2,66.5,29.33,ESE,109,5.0,10.0,82,0.00,,,0.00,WUHU216DAVISVP2,2013-07-13 14:24:00,
2013-07-13 10:26:00,72.2,66.1,29.33,East,84,4.0,11.0,81,0.00,,,0.00,WUHU216DAVISVP2,2013-07-13 14:26:00,
2013-07-13 10:28:00,72.5,66.4,29.33,East,97,4.0,11.0,81,0.00,,,0.00,WUHU216DAVISVP2,2013-07-13 14:28:00,
2013-07-13 10:29:00,72.6,66.5,29.33,ESE,105,8.0,11.0,81,0.00,,,0.00,WUHU216DAVISVP2,2013-07-13 14:29:00,
2013-07-13 10:31:00,72.7,66.3,29.33,NE,50,7.0,11.0,80,0.00,,,0.00,WUHU216DAVISVP2,2013-07-13 14:31:00,
2013-07-13 10:33:00,72.9,66.5,29.33,East,79,2.0,11.0,80,0.00,,,0.00,WUHU216DAVISVP2,2013-07-13 14:33:00,
2013-07-13 10:34:00,73.0,66.6,29.33,East,79,4.0,11.0,80,0.00,,,0.00,WUHU216DAVISVP2,2013-07-13 14:34:00,
2013-07-13 10:36:00,73.2,66.4,29.33,East,81,6.0,11.0,79,0.00,,,0.00,WUHU216DAVISVP2,2013-07-13 14:36:00,
2013-07-13 10:38:00,73.3,66.5,29.33,ESE,114,5.0,11.0,79,0.00,,,0.00,WUHU216DAVISVP2,2013-07-13 14:38:00,
2013-07-13 10:39:00,73.3,66.1,29.33,ENE,70,3.0,11.0,78,0.00,,,0.00,WUHU216DAVISVP2,2013-07-13 14:39:00,
2013-07-13 10:41:00,73.5,66.7,29.33,East,93,2.0,11.0,79,0.00,,,0.00,WUHU216DAVISVP2,2013-07-13 14:41:00,
2013-07-13 10:43:00,73.6,66.8,29.33,East,100,1.0,11.0,79,0.00,,,0.00,WUHU216DAVISVP2,2013-07-13 14:43:00,
2013-07-13 10:44:00,73.7,66.9,29.33,East,100,3.0,10.0,79,0.00,,,0.00,WUHU216DAVISVP2,2013-07-13 14:44:00,
2013-07-13 10:46:00,74.1,66.9,29.33,ENE,68,4.0,10.0,78,0.00,,,0.00,WUHU216DAVISVP2,2013-07-13 14:46:00,
2013-07-13 10:47:00,74.1,66.9,29.33,ENE,78,5.0,10.0,78,0.00,,,0.00,WUHU216DAVISVP2,2013-07-13 14:47:00,
2013-07-13 10:48:00,74.3,66.8,29.33,NE,56,8.0,10.0,77,0.00,,,0.00,WUHU216DAVISVP2,2013-07-13 14:48:00,
2013-07-13 10:49:00,74.4,66.9,29.33,East,81,5.0,10.0,77,0.00,,,0.00,WUHU216DAVISVP2,2013-07-13 14:49:00,
2013-07-13 10:51:00,74.6,66.7,29.33,East,81,6.0,10.0,76,0.00,,,0.00,WUHU216DAVISVP2,2013-07-13 14:51:00,
2013-07-13 10:52:00,74.7,66.8,29.33,East,86,6.0,10.0,76,0.00,,,0.00,WUHU216DAVISVP2,2013-07-13 14:52:00,
2013-07-13 10:53:00,74.7,66.4,29.33,East,79,5.0,10.0,75,0.00,,,0.00,WUHU216DAVISVP2,2013-07-13 14:53:00,
2013-07-13 10:54:00,74.7,66.4,29.33,ENE,75,5.0,10.0,75,0.00,,,0.00,WUHU216DAVISVP2,2013-07-13 14:54:00,
2013-07-13 10:55:00,74.7,66.4,29.33,NE,53,7.0,10.0,75,0.00,,,0.00,WUHU216DAVISVP2,2013-07-13 14:55:00,
2013-07-13 10:56:00,74.6,65.9,29.33,ENE,73,8.0,10.0,74,0.00,,,0.00,WUHU216DAVISVP2,2013-07-13 14:56:00,
2013-07-13 10:57:00,74.7,66.0,29.33,ENE,60,6.0,10.0,74,0.00,,,0.00,WUHU216DAVISVP2,2013-07-13 14:57:00,
2013-07-13 10:58:00,74.8,66.5,29.33,ENE,68,6.0,10.0,75,0.00,,,0.00,WUHU216DAVISVP2,2013-07-13 14:58:00,
2013-07-13 10:59:00,74.8,66.3,29.33,ENE,70,5.0,10.0,75,0.00,,,0.00,WUHU216DAVISVP2,2013-07-13 14:59:00,
2013-07-13 11:00:00,74.8,66.0,29.33,ENE,67,7.0,10.0,74,0.00,,,0.00,WUHU216DAVISVP2,2013-07-13 15:00:00,
2013-07-13 11:02:00,74.8,66.0,29.33,ENE,70,6.0,10.0,74,0.00,,,0.00,WUHU216DAVISVP2,2013-07-13 15:02:00,
2013-07-13 11:03:00,74.9,66.1,29.33,ENE,62,4.0,10.0,74,0.00,,,0.00,WUHU216DAVISVP2,2013-07-13 15:03:00,
2013-07-13 11:04:00,75.0,65.9,29.33,ENE,57,2.0,10.0,73,0.00,,,0.00,WUHU216DAVISVP2,2013-07-13 15:04:00,
2013-07-13 11:05:00,75.1,66.0,29.33,ENE,70,7.0,10.0,73,0.00,,,0.00,WUHU216DAVISVP2,2013-07-13 15:05:00,
2013-07-13 11:07:00,75.4,66.3,29.33,East,79,6.0,10.0,73,0.00,,,0.00,WUHU216DAVISVP2,2013-07-13 15:07:00,
2013-07-13 11:08:00,75.6,66.5,29.33,ENE,76,5.0,10.0,73,0.00,,,0.00,WUHU216DAVISVP2,2013-07-13 15:08:00,
2013-07-13 11:10:00,75.7,66.2,29.33,ESE,114,6.0,10.0,72,0.00,,,0.00,WUHU216DAVISVP2,2013-07-13 15:10:00,
2013-07-13 11:12:00,75.4,65.5,29.33,ESE,104,1.0,10.0,71,0.00,,,0.00,WUHU216DAVISVP2,2013-07-13 15:12:00,
2013-07-13 11:13:00,75.4,65.5,29.33,ESE,104,2.0,10.0,71,0.00,,,0.00,WUHU216DAVISVP2,2013-07-13 15:13:00,
2013-07-13 11:15:00,75.3,65.8,29.33,ENE,78,4.0,10.0,72,0.00,,,0.00,WUHU216DAVISVP2,2013-07-13 15:15:00,
2013-07-13 11:17:00,75.5,66.0,29.33,East,80,5.0,9.0,72,0.00,,,0.00,WUHU216DAVISVP2,2013-07-13 15:17:00,
2013-07-13 11:18:00,75.5,66.0,29.33,ENE,74,5.0,9.0,72,0.00,,,0.00,WUHU216DAVISVP2,2013-07-13 15:18:00,
2013-07-13 11:20:00,75.8,66.3,29.34,East,93,7.0,8.0,72,0.00,,,0.00,WUHU216DAVISVP2,2013-07-13 15:20:00,
2013-07-13 11:23:00,75.7,65.4,29.33,ESE,103,5.0,8.0,70,0.00,,,0.00,WUHU216DAVISVP2,2013-07-13 15:23:00,
2013-07-13 11:25:00,75.9,66.0,29.33,East,80,5.0,8.0,71,0.00,,,0.00,WUHU216DAVISVP2,2013-07-13 15:25:00,
2013-07-13 11:26:00,75.9,66.0,29.33,ENE,66,6.0,8.0,71,0.00,,,0.00,WUHU216DAVISVP2,2013-07-13 15:26:00,
2013-07-13 11:28:00,76.1,65.4,29.33,ENE,68,5.0,8.0,69,0.00,,,0.00,WUHU216DAVISVP2,2013-07-13 15:28:00,
2013-07-13 11:29:00,76.1,65.4,29.33,East,85,7.0,9.0,69,0.00,,,0.00,WUHU216DAVISVP2,2013-07-13 15:29:00,
2013-07-13 11:31:00,76.2,65.1,29.33,East,97,8.0,10.0,68,0.00,,,0.00,WUHU216DAVISVP2,2013-07-13 15:31:00,
2013-07-13 11:33:00,76.2,65.1,29.33,ENE,68,2.0,10.0,68,0.00,,,0.00,WUHU216DAVISVP2,2013-07-13 15:33:00,
2013-07-13 11:34:00,76.2,65.1,29.33,ESE,103,5.0,10.0,68,0.00,,,0.00,WUHU216DAVISVP2,2013-07-13 15:34:00,
2013-07-13 11:36:00,76.4,65.7,29.33,ESE,116,4.0,10.0,69,0.00,,,0.00,WUHU216DAVISVP2,2013-07-13 15:36:00,
2013-07-13 11:38:00,76.5,65.4,29.33,ENE,65,6.0,10.0,68,0.00,,,0.00,WUHU216DAVISVP2,2013-07-13 15:38:00,
2013-07-13 11:39:00,76.7,65.6,29.33,WSW,237,1.0,10.0,68,0.00,,,0.00,WUHU216DAVISVP2,2013-07-13 15:39:00,
2013-07-13 11:41:00,76.8,66.1,29.33,SE,143,4.0,10.0,69,0.00,,,0.00,WUHU216DAVISVP2,2013-07-13 15:41:00,
2013-07-13 11:43:00,76.9,66.2,29.33,SE,124,5.0,10.0,69,0.00,,,0.00,WUHU216DAVISVP2,2013-07-13 15:43:00,
2013-07-13 11:44:00,76.8,64.8,29.33,East,99,6.0,10.0,66,0.00,,,0.00,WUHU216DAVISVP2,2013-07-13 15:44:00,
2013-07-13 11:46:00,76.7,65.1,29.33,SE,124,0.0,10.0,67,0.00,,,0.00,WUHU216DAVISVP2,2013-07-13 15:46:00,
2013-07-13 11:47:00,76.7,65.1,29.33,ESE,122,4.0,10.0,67,0.00,,,0.00,WUHU216DAVISVP2,2013-07-13 15:47:00,
2013-07-13 11:48:00,76.9,65.3,29.33,ESE,112,5.0,9.0,67,0.00,,,0.00,WUHU216DAVISVP2,2013-07-13 15:48:00,
2013-07-13 11:49:00,76.9,65.3,29.33,SE,135,7.0,9.0,67,0.00,,,0.00,WUHU216DAVISVP2,2013-07-13 15:49:00,
2013-07-13 11:51:00,77.2,65.4,29.34,SSE,162,5.0,8.0,67,0.00,,,0.00,WUHU216DAVISVP2,2013-07-13 15:51:00,
2013-07-13 11:52:00,77.2,65.4,29.34,SSE,168,1.0,8.0,67,0.00,,,0.00,WUHU216DAVISVP2,2013-07-13 15:52:00,
2013-07-13 11:54:00,77.5,65.9,29.34,ENE,70,4.0,8.0,67,0.00,,,0.00,WUHU216DAVISVP2,2013-07-13 15:54:00,
2013-07-13 11:56:00,77.6,65.6,29.34,ESE,113,5.0,8.0,66,0.00,,,0.00,WUHU216DAVISVP2,2013-07-13 15:56:00,
2013-07-13 11:57:00,77.6,66.0,29.34,ENE,68,6.0,8.0,67,0.00,,,0.00,WUHU216DAVISVP2,2013-07-13 15:57:00,
2013-07-13 11:59:00,77.6,65.6,29.33,NE,52,3.0,8.0,66,0.00,,,0.00,WUHU216DAVISVP2,2013-07-13 15:59:00,
2013-07-13 12:02:00,77.6,66.0,29.33,ESE,110,8.0,9.0,67,0.00,,,0.00,WUHU216DAVISVP2,2013-07-13 16:02:00,
2013-07-13 12:04:00,77.5,65.9,29.33,ESE,122,7.0,10.0,67,0.00,,,0.00,WUHU216DAVISVP2,2013-07-13 16:04:00,
2013-07-13 12:07:00,77.2,65.2,29.33,East,99,5.0,10.0,66,0.00,,,0.00,WUHU216DAVISVP2,2013-07-13 16:07:00,
2013-07-13 12:09:00,77.1,65.5,29.33,East,95,8.0,11.0,67,0.00,,,0.00,WUHU216DAVISVP2,2013-07-13 16:09:00,
2013-07-13 12:10:00,77.1,65.5,29.34,East,100,5.0,11.0,67,0.00,,,0.00,WUHU216DAVISVP2,2013-07-13 16:10:00,
2013-07-13 12:12:00,77.2,66.0,29.33,East,93,7.0,11.0,68,0.00,,,0.00,WUHU216DAVISVP2,2013-07-13 16:12:00,
2013-07-13 12:14:00,77.3,65.7,29.33,East,99,6.0,11.0,67,0.00,,,0.00,WUHU216DAVISVP2,2013-07-13 16:14:00,
2013-07-13 12:15:00,77.3,65.3,29.34,ESE,108,8.0,11.0,66,0.00,,,0.00,WUHU216DAVISVP2,2013-07-13 16:15:00,
2013-07-13 12:17:00,77.2,65.2,29.34,ESE,112,7.0,11.0,66,0.00,,,0.00,WUHU216DAVISVP2,2013-07-13 16:17:00,
2013-07-13 12:19:00,77.2,65.6,29.34,ESE,118,4.0,11.0,67,0.00,,,0.00,WUHU216DAVISVP2,2013-07-13 16:19:00,
2013-07-13 12:20:00,77.3,65.7,29.34,SSE,154,4.0,11.0,67,0.00,,,0.00,WUHU216DAVISVP2,2013-07-13 16:20:00,
2013-07-13 12:22:00,77.4,66.6,29.34,ESE,104,0.0,11.0,69,0.00,,,0.00,WUHU216DAVISVP2,2013-07-13 16:22:00,
2013-07-13 12:23:00,77.5,66.7,29.34,ESE,104,4.0,11.0,69,0.00,,,0.00,WUHU216DAVISVP2,2013-07-13 16:23:00,
2013-07-13 12:24:00,77.7,66.5,29.33,East,97,4.0,11.0,68,0.00,,,0.00,WUHU216DAVISVP2,2013-07-13 16:24:00,
2013-07-13 12:25:00,77.9,66.3,29.33,ESE,107,7.0,11.0,67,0.00,,,0.00,WUHU216DAVISVP2,2013-07-13 16:25:00,
2013-07-13 12:28:00,77.9,66.3,29.33,East,89,6.0,10.0,67,0.00,,,0.00,WUHU216DAVISVP2,2013-07-13 16:28:00,
2013-07-13 12:30:00,77.9,66.3,29.33,ESE,123,2.0,10.0,67,0.00,,,0.00,WUHU216DAVISVP2,2013-07-13 16:30:00,
2013-07-13 12:31:00,78.0,66.8,29.33,East,99,2.0,10.0,68,0.00,,,0.00,WUHU216DAVISVP2,2013-07-13 16:31:00,
2013-07-13 12:33:00,78.0,66.4,29.33,ESE,122,11.0,11.0,67,0.00,,,0.00,WUHU216DAVISVP2,2013-07-13 16:33:00,
2013-07-13 12:35:00,78.1,66.9,29.33,East,90,9.0,11.0,68,0.00,,,0.00,WUHU216DAVISVP2,2013-07-13 16:35:00,
2013-07-13 12:36:00,78.2,66.1,29.33,ESE,104,10.0,11.0,66,0.00,,,0.00,WUHU216DAVISVP2,2013-07-13 16:36:00,
2013-07-13 12:38:00,78.1,66.0,29.33,East,100,9.0,12.0,66,0.00,,,0.00,WUHU216DAVISVP2,2013-07-13 16:38:00,
2013-07-13 12:40:00,78.0,65.5,29.33,SE,137,7.0,12.0,65,0.00,,,0.00,WUHU216DAVISVP2,2013-07-13 16:40:00,
2013-07-13 12:41:00,78.0,66.4,29.33,ESE,116,8.0,12.0,67,0.00,,,0.00,WUHU216DAVISVP2,2013-07-13 16:41:00,
2013-07-13 12:43:00,77.9,65.4,29.33,ESE,107,6.0,12.0,65,0.00,,,0.00,WUHU216DAVISVP2,2013-07-13 16:43:00,
2013-07-13 12:45:00,77.9,64.1,29.33,East,100,7.0,12.0,62,0.00,,,0.00,WUHU216DAVISVP2,2013-07-13 16:45:00,
2013-07-13 12:46:00,77.9,64.1,29.33,East,100,7.0,12.0,62,0.00,,,0.00,WUHU216DAVISVP2,2013-07-13 16:46:00,
2013-07-13 12:47:00,77.9,64.1,29.33,East,89,5.0,12.0,62,0.00,,,0.00,WUHU216DAVISVP2,2013-07-13 16:47:00,
2013-07-13 12:48:00,77.9,64.5,29.33,East,85,8.0,12.0,63,0.00,,,0.00,WUHU216DAVISVP2,2013-07-13 16:48:00,
2013-07-13 12:49:00,77.9,64.5,29.33,East,99,12.0,12.0,63,0.00,,,0.00,WUHU216DAVISVP2,2013-07-13 16:49:00,
2013-07-13 12:51:00,77.9,63.1,29.33,East,96,10.0,12.0,60,0.00,,,0.00,WUHU216DAVISVP2,2013-07-13 16:51:00,
2013-07-13 12:52:00,77.9,63.6,29.33,East,98,9.0,12.0,61,0.00,,,0.00,WUHU216DAVISVP2,2013-07-13 16:52:00,
2013-07-13 12:54:00,77.8,64.4,29.33,East,85,6.0,12.0,63,0.00,,,0.00,WUHU216DAVISVP2,2013-07-13 16:54:00,
2013-07-13 12:56:00,77.8,64.4,29.33,ESE,102,7.0,12.0,63,0.00,,,0.00,WUHU216DAVISVP2,2013-07-13 16:56:00,
2013-07-13 12:57:00,77.9,63.6,29.33,SE,132,6.0,12.0,61,0.00,,,0.00,WUHU216DAVISVP2,2013-07-13 16:57:00,
2013-07-13 12:59:00,78.0,64.2,29.33,ESE,108,9.0,12.0,62,0.00,,,0.00,WUHU216DAVISVP2,2013-07-13 16:59:00,
2013-07-13 13:01:00,78.1,64.3,29.33,ESE,123,11.0,12.0,62,0.00,,,0.00,WUHU216DAVISVP2,2013-07-13 17:01:00,
2013-07-13 13:02:00,78.2,64.8,29.33,ESE,109,10.0,12.0,63,0.00,,,0.00,WUHU216DAVISVP2,2013-07-13 17:02:00,
2013-07-13 13:03:00,78.2,64.8,29.33,ESE,108,8.0,12.0,63,0.00,,,0.00,WUHU216DAVISVP2,2013-07-13 17:03:00,
2013-07-13 13:04:00,78.2,63.9,29.33,ESE,123,7.0,12.0,61,0.00,,,0.00,WUHU216DAVISVP2,2013-07-13 17:04:00,
2013-07-13 13:06:00,78.2,64.3,29.33,NE,41,1.0,12.0,62,0.00,,,0.00,WUHU216DAVISVP2,2013-07-13 17:06:00,
2013-07-13 13:08:00,78.4,64.1,29.33,ESE,102,8.0,11.0,61,0.00,,,0.00,WUHU216DAVISVP2,2013-07-13 17:08:00,
2013-07-13 13:09:00,78.3,64.0,29.33,ESE,123,9.0,11.0,61,0.00,,,0.00,WUHU216DAVISVP2,2013-07-13 17:09:00,
2013-07-13 13:10:00,78.4,64.5,29.33,ESE,116,6.0,11.0,62,0.00,,,0.00,WUHU216DAVISVP2,2013-07-13 17:10:00,
2013-07-13 13:11:00,78.4,64.5,29.33,NE,40,4.0,11.0,62,0.00,,,0.00,WUHU216DAVISVP2,2013-07-13 17:11:00,
2013-07-13 13:13:00,78.5,65.1,29.33,ESE,114,11.0,11.0,63,0.00,,,0.00,WUHU216DAVISVP2,2013-07-13 17:13:00,
2013-07-13 13:14:00,78.5,63.7,29.33,ENE,76,5.0,11.0,60,0.00,,,0.00,WUHU216DAVISVP2,2013-07-13 17:14:00,
2013-07-13 13:15:00,78.5,63.9,29.33,ENE,61,6.0,11.0,61,0.00,,,0.00,WUHU216DAVISVP2,2013-07-13 17:15:00,
2013-07-13 13:16:00,78.6,64.5,29.33,ESE,103,10.0,11.0,62,0.00,,,0.00,WUHU216DAVISVP2,2013-07-13 17:16:00,
2013-07-13 13:18:00,78.7,64.6,29.33,ENE,60,10.0,12.0,62,0.00,,,0.00,WUHU216DAVISVP2,2013-07-13 17:18:00,
2013-07-13 13:19:00,78.7,64.1,29.33,NE,50,9.0,13.0,61,0.00,,,0.00,WUHU216DAVISVP2,2013-07-13 17:19:00,
2013-07-13 13:20:00,78.8,64.2,29.33,ENE,60,5.0,13.0,61,0.00,,,0.00,WUHU216DAVISVP2,2013-07-13 17:20:00,
2013-07-13 13:21:00,78.8,64.2,29.33,ESE,103,5.0,13.0,61,0.00,,,0.00,WUHU216DAVISVP2,2013-07-13 17:21:00,
2013-07-13 13:24:00,78.8,64.7,29.33,East,100,6.0,13.0,62,0.00,,,0.00,WUHU216DAVISVP2,2013-07-13 17:24:00,
2013-07-13 13:25:00,78.7,64.6,29.33,SE,124,5.0,13.0,62,0.00,,,0.00,WUHU216DAVISVP2,2013-07-13 17:25:00,
2013-07-13 13:26:00,78.7,65.0,29.33,ESE,122,10.0,13.0,63,0.00,,,0.00,WUHU216DAVISVP2,2013-07-13 17:26:00,
2013-07-13 13:29:00,78.5,65.1,29.33,SE,132,8.0,13.0,63,0.00,,,0.00,WUHU216DAVISVP2,2013-07-13 17:29:00,
2013-07-13 13:30:00,78.5,65.1,29.33,ESE,123,1.0,13.0,63,0.00,,,0.00,WUHU216DAVISVP2,2013-07-13 17:30:00,
2013-07-13 13:31:00,78.5,65.1,29.33,ESE,107,8.0,13.0,63,0.00,,,0.00,WUHU216DAVISVP2,2013-07-13 17:31:00,
2013-07-13 13:32:00,78.6,65.6,29.33,SE,132,1.0,13.0,64,0.00,,,0.00,WUHU216DAVISVP2,2013-07-13 17:32:00,
2013-07-13 13:34:00,78.8,64.4,29.33,ESE,113,6.0,13.0,61,0.00,,,0.00,WUHU216DAVISVP2,2013-07-13 17:34:00,
2013-07-13 13:35:00,79.0,65.1,29.33,SE,138,7.0,13.0,62,0.00,,,0.00,WUHU216DAVISVP2,2013-07-13 17:35:00,
2013-07-13 13:36:00,79.0,64.2,29.33,South,174,5.0,13.0,60,0.00,,,0.00,WUHU216DAVISVP2,2013-07-13 17:36:00,
2013-07-13 13:37:00,79.1,64.0,29.33,SE,132,6.0,13.0,60,0.00,,,0.00,WUHU216DAVISVP2,2013-07-13 17:37:00,
2013-07-13 13:39:00,79.1,64.0,29.33,SE,125,4.0,13.0,60,0.00,,,0.00,WUHU216DAVISVP2,2013-07-13 17:39:00,
2013-07-13 13:40:00,79.1,64.0,29.33,ESE,109,4.0,13.0,60,0.00,,,0.00,WUHU216DAVISVP2,2013-07-13 17:40:00,
2013-07-13 13:41:00,79.1,64.5,29.33,SE,134,6.0,13.0,61,0.00,,,0.00,WUHU216DAVISVP2,2013-07-13 17:41:00,
2013-07-13 13:42:00,78.9,64.8,29.33,ENE,72,6.0,13.0,62,0.00,,,0.00,WUHU216DAVISVP2,2013-07-13 17:42:00,
2013-07-13 13:44:00,78.7,64.6,29.33,ESE,108,6.0,13.0,62,0.00,,,0.00,WUHU216DAVISVP2,2013-07-13 17:44:00,
2013-07-13 13:45:00,78.5,64.4,29.33,ENE,70,5.0,13.0,62,0.00,,,0.00,WUHU216DAVISVP2,2013-07-13 17:45:00,
2013-07-13 13:46:00,78.4,64.8,29.33,ENE,75,4.0,11.0,63,0.00,,,0.00,WUHU216DAVISVP2,2013-07-13 17:46:00,
2013-07-13 13:48:00,78.4,64.8,29.33,NE,48,7.0,10.0,63,0.00,,,0.00,WUHU216DAVISVP2,2013-07-13 17:48:00,
2013-07-13 13:50:00,78.5,64.6,29.33,ESE,104,10.0,12.0,62,0.00,,,0.00,WUHU216DAVISVP2,2013-07-13 17:50:00,
2013-07-13 13:51:00,78.5,64.6,29.33,SE,134,12.0,13.0,62,0.00,,,0.00,WUHU216DAVISVP2,2013-07-13 17:51:00,
2013-07-13 13:53:00,78.4,65.0,29.33,ESE,103,10.0,13.0,63,0.00,,,0.00,WUHU216DAVISVP2,2013-07-13 17:53:00,
2013-07-13 13:55:00,78.1,64.3,29.32,East,86,4.0,13.0,62,0.00,,,0.00,WUHU216DAVISVP2,2013-07-13 17:55:00,
2013-07-13 13:56:00,78.0,64.6,29.33,ENE,73,8.0,13.0,63,0.00,,,0.00,WUHU216DAVISVP2,2013-07-13 17:56:00,
2013-07-13 13:57:00,78.0,64.6,29.33,ESE,105,5.0,13.0,63,0.00,,,0.00,WUHU216DAVISVP2,2013-07-13 17:57:00,
2013-07-13 13:58:00,78.2,65.3,29.33,SE,135,2.0,13.0,64,0.00,,,0.00,WUHU216DAVISVP2,2013-07-13 17:58:00,
2013-07-13 14:00:00,78.4,65.4,29.33,ESE,111,6.0,13.0,64,0.00,,,0.00,WUHU216DAVISVP2,2013-07-13 18:00:00,
2013-07-13 14:02:00,78.6,65.6,29.33,SE,133,5.0,13.0,64,0.00,,,0.00,WUHU216DAVISVP2,2013-07-13 18:02:00,
2013-07-13 14:03:00,78.7,65.3,29.33,East,94,8.0,13.0,63,0.00,,,0.00,WUHU216DAVISVP2,2013-07-13 18:03:00,
2013-07-13 14:05:00,78.8,65.1,29.33,East,93,5.0,13.0,63,0.00,,,0.00,WUHU216DAVISVP2,2013-07-13 18:05:00,
2013-07-13 14:07:00,78.7,64.6,29.33,East,91,7.0,13.0,62,0.00,,,0.00,WUHU216DAVISVP2,2013-07-13 18:07:00,
2013-07-13 14:08:00,78.5,64.9,29.33,East,91,7.0,13.0,63,0.00,,,0.00,WUHU216DAVISVP2,2013-07-13 18:08:00,
2013-07-13 14:10:00,78.3,64.7,29.33,SE,133,6.0,13.0,63,0.00,,,0.00,WUHU216DAVISVP2,2013-07-13 18:10:00,
2013-07-13 14:12:00,78.3,65.1,29.32,ESE,110,8.0,13.0,64,0.00,,,0.00,WUHU216DAVISVP2,2013-07-13 18:12:00,
2013-07-13 14:13:00,78.4,64.3,29.32,ESE,117,9.0,13.0,62,0.00,,,0.00,WUHU216DAVISVP2,2013-07-13 18:13:00,
2013-07-13 14:15:00,78.5,64.9,29.32,East,95,7.0,13.0,63,0.00,,,0.00,WUHU216DAVISVP2,2013-07-13 18:15:00,
2013-07-13 14:16:00,78.5,64.9,29.32,ENE,58,6.0,13.0,63,0.00,,,0.00,WUHU216DAVISVP2,2013-07-13 18:16:00,
2013-07-13 14:17:00,78.7,65.3,29.32,East,89,7.0,13.0,63,0.00,,,0.00,WUHU216DAVISVP2,2013-07-13 18:17:00,
2013-07-13 14:18:00,78.7,64.4,29.32,East,81,5.0,13.0,61,0.00,,,0.00,WUHU216DAVISVP2,2013-07-13 18:18:00,
2013-07-13 14:19:00,78.8,65.4,29.32,ENE,73,5.0,13.0,63,0.00,,,0.00,WUHU216DAVISVP2,2013-07-13 18:19:00,
2013-07-13 14:21:00,78.8,65.8,29.32,SE,124,6.0,13.0,64,0.00,,,0.00,WUHU216DAVISVP2,2013-07-13 18:21:00,
2013-07-13 14:22:00,78.8,64.9,29.32,SE,128,7.0,13.0,62,0.00,,,0.00,WUHU216DAVISVP2,2013-07-13 18:22:00,
2013-07-13 14:23:00,78.8,64.9,29.32,SE,128,5.0,13.0,62,0.00,,,0.00,WUHU216DAVISVP2,2013-07-13 18:23:00,
2013-07-13 14:24:00,78.7,65.3,29.32,East,97,11.0,13.0,63,0.00,,,0.00,WUHU216DAVISVP2,2013-07-13 18:24:00,
2013-07-13 14:26:00,78.7,65.3,29.32,East,96,11.0,12.0,63,0.00,,,0.00,WUHU216DAVISVP2,2013-07-13 18:26:00,
2013-07-13 14:27:00,78.7,65.3,29.32,ENE,60,7.0,12.0,63,0.00,,,0.00,WUHU216DAVISVP2,2013-07-13 18:27:00,
2013-07-13 14:28:00,78.7,64.4,29.32,ESE,103,7.0,12.0,61,0.00,,,0.00,WUHU216DAVISVP2,2013-07-13 18:28:00,
2013-07-13 14:29:00,78.6,64.3,29.32,East,101,9.0,15.0,61,0.00,,,0.00,WUHU216DAVISVP2,2013-07-13 18:29:00,
2013-07-13 14:31:00,78.5,64.4,29.32,East,79,7.0,15.0,62,0.00,,,0.00,WUHU216DAVISVP2,2013-07-13 18:31:00,
2013-07-13 14:33:00,78.4,64.3,29.32,East,100,9.0,15.0,62,0.00,,,0.00,WUHU216DAVISVP2,2013-07-13 18:33:00,
2013-07-13 14:35:00,78.5,64.9,29.32,ESE,108,5.0,15.0,63,0.00,,,0.00,WUHU216DAVISVP2,2013-07-13 18:35:00,
2013-07-13 14:36:00,78.6,64.9,29.32,ESE,118,9.0,15.0,63,0.00,,,0.00,WUHU216DAVISVP2,2013-07-13 18:36:00,
2013-07-13 14:38:00,78.8,65.6,29.32,East,93,1.0,15.0,64,0.00,,,0.00,WUHU216DAVISVP2,2013-07-13 18:38:00,
2013-07-13 14:39:00,78.9,66.1,29.32,South,188,4.0,15.0,65,0.00,,,0.00,WUHU216DAVISVP2,2013-07-13 18:39:00,
2013-07-13 14:41:00,79.1,65.9,29.32,ESE,114,5.0,15.0,64,0.00,,,0.00,WUHU216DAVISVP2,2013-07-13 18:41:00,
2013-07-13 14:42:00,79.2,65.5,29.32,ESE,116,8.0,15.0,63,0.00,,,0.00,WUHU216DAVISVP2,2013-07-13 18:42:00,
2013-07-13 14:44:00,79.3,66.3,29.32,SE,125,4.0,15.0,64,0.00,,,0.00,WUHU216DAVISVP2,2013-07-13 18:44:00,
2013-07-13 14:46:00,79.4,65.9,29.32,SE,129,8.0,15.0,63,0.00,,,0.00,WUHU216DAVISVP2,2013-07-13 18:46:00,
2013-07-13 14:47:00,79.4,65.5,29.32,ESE,110,10.0,15.0,62,0.00,,,0.00,WUHU216DAVISVP2,2013-07-13 18:47:00,
2013-07-13 14:49:00,79.5,66.0,29.32,ENE,69,4.0,13.0,63,0.00,,,0.00,WUHU216DAVISVP2,2013-07-13 18:49:00,
2013-07-13 14:51:00,79.6,65.7,29.32,ESE,108,7.0,13.0,62,0.00,,,0.00,WUHU216DAVISVP2,2013-07-13 18:51:00,
2013-07-13 14:52:00,79.7,65.3,29.31,ESE,107,7.0,13.0,61,0.00,,,0.00,WUHU216DAVISVP2,2013-07-13 18:52:00,
2013-07-13 14:54:00,79.8,65.9,29.32,ESE,108,6.0,13.0,62,0.00,,,0.00,WUHU216DAVISVP2,2013-07-13 18:54:00,
2013-07-13 14:56:00,79.8,65.6,29.31,ESE,102,8.0,13.0,62,0.00,,,0.00,WUHU216DAVISVP2,2013-07-13 18:56:00,
2013-07-13 14:57:00,79.8,65.2,29.31,East,99,9.0,13.0,61,0.00,,,0.00,WUHU216DAVISVP2,2013-07-13 18:57:00,
2013-07-13 14:59:00,79.8,65.6,29.31,ENE,75,5.0,13.0,62,0.00,,,0.00,WUHU216DAVISVP2,2013-07-13 18:59:00,
2013-07-13 15:01:00,79.9,65.5,29.31,ESE,120,8.0,13.0,61,0.00,,,0.00,WUHU216DAVISVP2,2013-07-13 19:01:00,
2013-07-13 15:02:00,79.8,65.4,29.31,ESE,108,12.0,13.0,61,0.00,,,0.00,WUHU216DAVISVP2,2013-07-13 19:02:00,
2013-07-13 15:03:00,79.8,65.4,29.31,ESE,109,10.0,13.0,61,0.00,,,0.00,WUHU216DAVISVP2,2013-07-13 19:03:00,
2013-07-13 15:04:00,79.6,65.2,29.32,ESE,114,5.0,12.0,61,0.00,,,0.00,WUHU216DAVISVP2,2013-07-13 19:04:00,
2013-07-13 15:05:00,79.6,65.2,29.32,ESE,108,7.0,12.0,61,0.00,,,0.00,WUHU216DAVISVP2,2013-07-13 19:05:00,
2013-07-13 15:06:00,79.6,65.7,29.31,East,95,5.0,12.0,62,0.00,,,0.00,WUHU216DAVISVP2,2013-07-13 19:06:00,
2013-07-13 15:08:00,79.6,66.1,29.32,ESE,122,4.0,12.0,63,0.00,,,0.00,WUHU216DAVISVP2,2013-07-13 19:08:00,
2013-07-13 15:09:00,79.7,66.7,29.32,ESE,118,5.0,12.0,64,0.00,,,0.00,WUHU216DAVISVP2,2013-07-13 19:09:00,
2013-07-13 15:10:00,79.7,65.8,29.31,East,97,8.0,12.0,62,0.00,,,0.00,WUHU216DAVISVP2,2013-07-13 19:10:00,
2013-07-13 15:11:00,80.0,66.3,29.31,ESE,114,9.0,12.0,63,0.00,,,0.00,WUHU216DAVISVP2,2013-07-13 19:11:00,
2013-07-13 15:13:00,80.0,65.8,29.31,ESE,123,9.0,12.0,62,0.00,,,0.00,WUHU216DAVISVP2,2013-07-13 19:13:00,
2013-07-13 15:14:00,80.0,66.1,29.31,SE,127,9.0,12.0,62,0.00,,,0.00,WUHU216DAVISVP2,2013-07-13 19:14:00,
2013-07-13 15:15:00,80.0,65.6,29.31,South,173,9.0,12.0,61,0.00,,,0.00,WUHU216DAVISVP2,2013-07-13 19:15:00,
2013-07-13 15:17:00,79.9,66.0,29.31,ESE,104,2.0,12.0,62,0.00,,,0.00,WUHU216DAVISVP2,2013-07-13 19:17:00,
2013-07-13 15:18:00,79.9,66.4,29.31,East,86,6.0,12.0,63,0.00,,,0.00,WUHU216DAVISVP2,2013-07-13 19:18:00,
2013-07-13 15:19:00,79.8,65.9,29.31,East,81,7.0,12.0,62,0.00,,,0.00,WUHU216DAVISVP2,2013-07-13 19:19:00,
2013-07-13 15:20:00,79.8,65.9,29.31,SE,132,4.0,12.0,62,0.00,,,0.00,WUHU216DAVISVP2,2013-07-13 19:20:00,
2013-07-13 15:22:00,79.9,66.2,29.31,East,85,3.0,12.0,63,0.00,,,0.00,WUHU216DAVISVP2,2013-07-13 19:22:00,
2013-07-13 15:23:00,80.0,66.7,29.31,ESE,120,2.0,12.0,64,0.00,,,0.00,WUHU216DAVISVP2,2013-07-13 19:23:00,
2013-07-13 15:24:00,80.2,66.9,29.31,ESE,110,5.0,12.0,64,0.00,,,0.00,WUHU216DAVISVP2,2013-07-13 19:24:00,
2013-07-13 15:25:00,80.4,66.6,29.31,SE,127,9.0,12.0,63,0.00,,,0.00,WUHU216DAVISVP2,2013-07-13 19:25:00,
2013-07-13 15:27:00,80.5,65.8,29.31,ENE,74,5.0,12.0,61,0.00,,,0.00,WUHU216DAVISVP2,2013-07-13 19:27:00,
2013-07-13 15:28:00,80.5,65.8,29.31,ESE,108,9.0,12.0,61,0.00,,,0.00,WUHU216DAVISVP2,2013-07-13 19:28:00,
2013-07-13 15:29:00,80.4,66.0,29.31,East,98,9.0,12.0,61,0.00,,,0.00,WUHU216DAVISVP2,2013-07-13 19:29:00,
2013-07-13 15:30:00,80.3,65.9,29.31,East,91,5.0,11.0,61,0.00,,,0.00,WUHU216DAVISVP2,2013-07-13 19:30:00,
2013-07-13 15:32:00,80.3,66.8,29.31,SSE,159,6.0,11.0,63,0.00,,,0.00,WUHU216DAVISVP2,2013-07-13 19:32:00,
2013-07-13 15:33:00,80.3,65.9,29.31,South,191,1.0,11.0,61,0.00,,,0.00,WUHU216DAVISVP2,2013-07-13 19:33:00,
2013-07-13 15:34:00,80.3,66.8,29.31,ESE,121,2.0,11.0,63,0.00,,,0.00,WUHU216DAVISVP2,2013-07-13 19:34:00,
2013-07-13 15:35:00,80.3,66.8,29.31,SSW,209,3.0,11.0,63,0.00,,,0.00,WUHU216DAVISVP2,2013-07-13 19:35:00,
2013-07-13 15:37:00,80.2,66.2,29.31,East,93,1.0,10.0,62,0.00,,,0.00,WUHU216DAVISVP2,2013-07-13 19:37:00,
2013-07-13 15:38:00,80.2,66.7,29.31,East,93,0.0,10.0,63,0.00,,,0.00,WUHU216DAVISVP2,2013-07-13 19:38:00,
2013-07-13 15:39:00,80.3,66.8,29.31,SE,124,4.0,10.0,63,0.00,,,0.00,WUHU216DAVISVP2,2013-07-13 19:39:00,
2013-07-13 15:40:00,80.3,66.8,29.31,East,87,10.0,10.0,63,0.00,,,0.00,WUHU216DAVISVP2,2013-07-13 19:40:00,
2013-07-13 15:43:00,80.2,66.7,29.31,ENE,78,8.0,11.0,63,0.00,,,0.00,WUHU216DAVISVP2,2013-07-13 19:43:00,
2013-07-13 15:45:00,80.0,67.0,29.31,East,95,10.0,11.0,64,0.00,,,0.00,WUHU216DAVISVP2,2013-07-13 19:45:00,
2013-07-13 15:48:00,79.7,66.0,29.31,ESE,104,7.0,11.0,63,0.00,,,0.00,WUHU216DAVISVP2,2013-07-13 19:48:00,
2013-07-13 15:50:00,79.7,66.0,29.31,East,97,10.0,11.0,63,0.00,,,0.00,WUHU216DAVISVP2,2013-07-13 19:50:00,
2013-07-13 15:53:00,79.9,67.3,29.31,ENE,65,10.0,11.0,65,0.00,,,0.00,WUHU216DAVISVP2,2013-07-13 19:53:00,
2013-07-13 15:55:00,80.3,66.8,29.31,NE,54,6.0,11.0,63,0.00,,,0.00,WUHU216DAVISVP2,2013-07-13 19:55:00,
2013-07-13 15:56:00,80.3,66.8,29.31,East,94,7.0,11.0,63,0.00,,,0.00,WUHU216DAVISVP2,2013-07-13 19:56:00,
2013-07-13 15:58:00,80.4,66.9,29.31,East,93,10.0,11.0,63,0.00,,,0.00,WUHU216DAVISVP2,2013-07-13 19:58:00,
2013-07-13 16:00:00,80.4,66.9,29.31,ESE,110,11.0,12.0,63,0.00,,,0.00,WUHU216DAVISVP2,2013-07-13 20:00:00,
2013-07-13 16:01:00,80.4,66.9,29.31,ENE,68,8.0,12.0,63,0.00,,,0.00,WUHU216DAVISVP2,2013-07-13 20:01:00,
2013-07-13 16:03:00,80.3,66.8,29.31,ENE,77,7.0,12.0,63,0.00,,,0.00,WUHU216DAVISVP2,2013-07-13 20:03:00,
2013-07-13 16:04:00,80.4,66.9,29.31,ESE,118,4.0,12.0,63,0.00,,,0.00,WUHU216DAVISVP2,2013-07-13 20:04:00,
2013-07-13 16:06:00,80.4,66.9,29.30,SE,131,6.0,13.0,63,0.00,,,0.00,WUHU216DAVISVP2,2013-07-13 20:06:00,
2013-07-13 16:09:00,80.7,67.2,29.30,SE,124,7.0,13.0,63,0.00,,,0.00,WUHU216DAVISVP2,2013-07-13 20:09:00,
2013-07-13 16:11:00,80.9,66.9,29.30,ENE,71,6.0,13.0,62,0.00,,,0.00,WUHU216DAVISVP2,2013-07-13 20:11:00,
2013-07-13 16:14:00,81.1,66.6,29.30,East,88,15.0,18.0,61,0.00,,,0.00,WUHU216DAVISVP2,2013-07-13 20:14:00,
2013-07-13 16:16:00,80.9,66.4,29.30,South,189,6.0,18.0,61,0.00,,,0.00,WUHU216DAVISVP2,2013-07-13 20:16:00,
2013-07-13 16:19:00,81.2,67.2,29.30,SE,127,5.0,18.0,62,0.00,,,0.00,WUHU216DAVISVP2,2013-07-13 20:19:00,
2013-07-13 16:20:00,81.2,66.7,29.30,East,95,5.0,18.0,61,0.00,,,0.00,WUHU216DAVISVP2,2013-07-13 20:20:00,
2013-07-13 16:21:00,81.3,67.3,29.30,ESE,108,2.0,18.0,62,0.00,,,0.00,WUHU216DAVISVP2,2013-07-13 20:21:00,
2013-07-13 16:22:00,81.4,67.8,29.30,East,89,4.0,18.0,63,0.00,,,0.00,WUHU216DAVISVP2,2013-07-13 20:22:00,
2013-07-13 16:24:00,81.6,67.1,29.30,ESE,104,8.0,18.0,61,0.00,,,0.00,WUHU216DAVISVP2,2013-07-13 20:24:00,
2013-07-13 16:25:00,81.4,66.4,29.30,East,97,11.0,18.0,60,0.00,,,0.00,WUHU216DAVISVP2,2013-07-13 20:25:00,
2013-07-13 16:26:00,81.4,66.4,29.30,ENE,66,11.0,18.0,60,0.00,,,0.00,WUHU216DAVISVP2,2013-07-13 20:26:00,
2013-07-13 16:27:00,81.4,66.4,29.30,East,85,11.0,18.0,60,0.00,,,0.00,WUHU216DAVISVP2,2013-07-13 20:27:00,
2013-07-13 16:29:00,81.1,66.1,29.30,ENE,70,5.0,18.0,60,0.00,,,0.00,WUHU216DAVISVP2,2013-07-13 20:29:00,
2013-07-13 16:31:00,81.1,66.6,29.30,ESE,114,7.0,18.0,61,0.00,,,0.00,WUHU216DAVISVP2,2013-07-13 20:31:00,
2013-07-13 16:32:00,81.0,67.0,29.30,East,93,6.0,18.0,62,0.00,,,0.00,WUHU216DAVISVP2,2013-07-13 20:32:00,
2013-07-13 16:33:00,81.1,67.6,29.30,ESE,109,6.0,18.0,63,0.00,,,0.00,WUHU216DAVISVP2,2013-07-13 20:33:00,
2013-07-13 16:34:00,81.1,67.6,29.30,East,89,3.0,18.0,63,0.00,,,0.00,WUHU216DAVISVP2,2013-07-13 20:34:00,
2013-07-13 16:36:00,81.2,67.7,29.30,East,80,2.0,18.0,63,0.00,,,0.00,WUHU216DAVISVP2,2013-07-13 20:36:00,
2013-07-13 16:37:00,81.4,66.9,29.30,ESE,109,7.0,18.0,61,0.00,,,0.00,WUHU216DAVISVP2,2013-07-13 20:37:00,
2013-07-13 16:38:00,81.4,66.9,29.30,ENE,57,6.0,18.0,61,0.00,,,0.00,WUHU216DAVISVP2,2013-07-13 20:38:00,
2013-07-13 16:40:00,81.7,68.1,29.30,NE,52,3.0,18.0,63,0.00,,,0.00,WUHU216DAVISVP2,2013-07-13 20:40:00,
2013-07-13 16:41:00,81.8,68.2,29.30,East,96,4.0,18.0,63,0.00,,,0.00,WUHU216DAVISVP2,2013-07-13 20:41:00,
2013-07-13 16:42:00,81.8,67.8,29.30,ESE,117,12.0,18.0,62,0.00,,,0.00,WUHU216DAVISVP2,2013-07-13 20:42:00,
2013-07-13 16:43:00,81.8,67.3,29.30,East,101,7.0,18.0,61,0.00,,,0.00,WUHU216DAVISVP2,2013-07-13 20:43:00,
2013-07-13 16:45:00,81.6,67.1,29.30,East,93,7.0,18.0,61,0.00,,,0.00,WUHU216DAVISVP2,2013-07-13 20:45:00,
2013-07-13 16:46:00,81.5,67.0,29.30,East,100,8.0,18.0,61,0.00,,,0.00,WUHU216DAVISVP2,2013-07-13 20:46:00,
2013-07-13 16:47:00,81.5,67.0,29.30,ESE,112,7.0,18.0,61,0.00,,,0.00,WUHU216DAVISVP2,2013-07-13 20:47:00,
2013-07-13 16:48:00,81.5,67.0,29.30,SE,131,5.0,12.0,61,0.00,,,0.00,WUHU216DAVISVP2,2013-07-13 20:48:00,
2013-07-13 16:51:00,81.5,67.0,29.30,ESE,106,7.0,12.0,61,0.00,,,0.00,WUHU216DAVISVP2,2013-07-13 20:51:00,
2013-07-13 16:52:00,81.4,66.9,29.30,East,91,5.0,12.0,61,0.00,,,0.00,WUHU216DAVISVP2,2013-07-13 20:52:00,
2013-07-13 16:53:00,81.4,67.4,29.30,ESE,113,8.0,12.0,62,0.00,,,0.00,WUHU216DAVISVP2,2013-07-13 20:53:00,
2013-07-13 16:56:00,81.4,66.9,29.30,East,87,11.0,13.0,61,0.00,,,0.00,WUHU216DAVISVP2,2013-07-13 20:56:00,
2013-07-13 16:57:00,81.6,67.1,29.30,ESE,108,8.0,13.0,61,0.00,,,0.00,WUHU216DAVISVP2,2013-07-13 20:57:00,
2013-07-13 16:58:00,81.6,67.1,29.30,ESE,107,12.0,13.0,61,0.00,,,0.00,WUHU216DAVISVP2,2013-07-13 20:58:00,
2013-07-13 16:59:00,81.6,67.6,29.30,ENE,68,9.0,13.0,62,0.00,,,0.00,WUHU216DAVISVP2,2013-07-13 20:59:00,
2013-07-13 17:01:00,81.4,66.9,29.30,ESE,106,5.0,13.0,61,0.00,,,0.00,WUHU216DAVISVP2,2013-07-13 21:01:00,
2013-07-13 17:02:00,81.4,67.4,29.30,SE,137,6.0,13.0,62,0.00,,,0.00,WUHU216DAVISVP2,2013-07-13 21:02:00,
2013-07-13 17:03:00,81.4,67.4,29.30,SE,127,10.0,13.0,62,0.00,,,0.00,WUHU216DAVISVP2,2013-07-13 21:03:00,
2013-07-13 17:04:00,81.3,66.8,29.30,ESE,102,6.0,13.0,61,0.00,,,0.00,WUHU216DAVISVP2,2013-07-13 21:04:00,
2013-07-13 17:06:00,81.3,67.3,29.30,East,95,6.0,13.0,62,0.00,,,0.00,WUHU216DAVISVP2,2013-07-13 21:06:00,
2013-07-13 17:07:00,81.3,67.3,29.30,East,100,5.0,13.0,62,0.00,,,0.00,WUHU216DAVISVP2,2013-07-13 21:07:00,
2013-07-13 17:08:00,81.4,67.4,29.30,ESE,110,6.0,13.0,62,0.00,,,0.00,WUHU216DAVISVP2,2013-07-13 21:08:00,
2013-07-13 17:09:00,81.4,67.4,29.30,ESE,108,8.0,13.0,62,0.00,,,0.00,WUHU216DAVISVP2,2013-07-13 21:09:00,
2013-07-13 17:11:00,81.4,67.8,29.30,ESE,109,7.0,13.0,63,0.00,,,0.00,WUHU216DAVISVP2,2013-07-13 21:11:00,
2013-07-13 17:12:00,81.4,68.3,29.30,East,90,5.0,13.0,64,0.00,,,0.00,WUHU216DAVISVP2,2013-07-13 21:12:00,
2013-07-13 17:13:00,81.5,67.9,29.30,ESE,104,6.0,13.0,63,0.00,,,0.00,WUHU216DAVISVP2,2013-07-13 21:13:00,
2013-07-13 17:14:00,81.5,67.5,29.30,East,97,7.0,13.0,62,0.00,,,0.00,WUHU216DAVISVP2,2013-07-13 21:14:00,
2013-07-13 17:17:00,81.5,67.5,29.30,East,93,7.0,12.0,62,0.00,,,0.00,WUHU216DAVISVP2,2013-07-13 21:17:00,
2013-07-13 17:18:00,81.6,67.6,29.30,East,91,7.0,12.0,62,0.00,,,0.00,WUHU216DAVISVP2,2013-07-13 21:18:00,
2013-07-13 17:19:00,81.6,67.6,29.30,ENE,70,8.0,12.0,62,0.00,,,0.00,WUHU216DAVISVP2,2013-07-13 21:19:00,
2013-07-13 17:22:00,81.6,67.6,29.30,ESE,107,6.0,13.0,62,0.00,,,0.00,WUHU216DAVISVP2,2013-07-13 21:22:00,
2013-07-13 17:24:00,81.6,67.6,29.30,SE,126,8.0,13.0,62,0.00,,,0.00,WUHU216DAVISVP2,2013-07-13 21:24:00,
2013-07-13 17:25:00,81.6,67.6,29.30,East,95,6.0,13.0,62,0.00,,,0.00,WUHU216DAVISVP2,2013-07-13 21:25:00,
2013-07-13 17:27:00,81.7,67.7,29.30,ESE,110,7.0,13.0,62,0.00,,,0.00,WUHU216DAVISVP2,2013-07-13 21:27:00,
2013-07-13 17:29:00,81.6,67.6,29.30,ESE,115,6.0,13.0,62,0.00,,,0.00,WUHU216DAVISVP2,2013-07-13 21:29:00,
2013-07-13 17:30:00,81.6,68.0,29.30,ESE,110,11.0,14.0,63,0.00,,,0.00,WUHU216DAVISVP2,2013-07-13 21:30:00,
2013-07-13 17:32:00,81.5,67.9,29.30,ESE,110,7.0,14.0,63,0.00,,,0.00,WUHU216DAVISVP2,2013-07-13 21:32:00,
2013-07-13 17:34:00,81.5,67.0,29.30,SE,128,8.0,14.0,61,0.00,,,0.00,WUHU216DAVISVP2,2013-07-13 21:34:00,
2013-07-13 17:35:00,81.5,67.0,29.30,East,93,7.0,14.0,61,0.00,,,0.00,WUHU216DAVISVP2,2013-07-13 21:35:00,
2013-07-13 17:36:00,81.5,67.0,29.30,ESE,102,11.0,14.0,61,0.00,,,0.00,WUHU216DAVISVP2,2013-07-13 21:36:00,
2013-07-13 17:37:00,81.6,67.6,29.30,East,97,12.0,14.0,62,0.00,,,0.00,WUHU216DAVISVP2,2013-07-13 21:37:00,
2013-07-13 17:40:00,81.7,68.1,29.30,East,79,7.0,14.0,63,0.00,,,0.00,WUHU216DAVISVP2,2013-07-13 21:40:00,
2013-07-13 17:41:00,81.7,67.7,29.30,SE,141,2.0,14.0,62,0.00,,,0.00,WUHU216DAVISVP2,2013-07-13 21:41:00,
2013-07-13 17:42:00,81.8,68.2,29.30,East,97,6.0,14.0,63,0.00,,,0.00,WUHU216DAVISVP2,2013-07-13 21:42:00,
2013-07-13 17:45:00,81.9,68.3,29.29,SE,131,4.0,14.0,63,0.00,,,0.00,WUHU216DAVISVP2,2013-07-13 21:45:00,
2013-07-13 17:46:00,81.9,68.3,29.30,ESE,120,6.0,14.0,63,0.00,,,0.00,WUHU216DAVISVP2,2013-07-13 21:46:00,
2013-07-13 17:47:00,81.9,67.9,29.29,East,93,7.0,14.0,62,0.00,,,0.00,WUHU216DAVISVP2,2013-07-13 21:47:00,
2013-07-13 17:50:00,82.0,67.5,29.29,ESE,114,8.0,14.0,61,0.00,,,0.00,WUHU216DAVISVP2,2013-07-13 21:50:00,
2013-07-13 17:51:00,82.0,67.5,29.29,ENE,64,9.0,14.0,61,0.00,,,0.00,WUHU216DAVISVP2,2013-07-13 21:51:00,
2013-07-13 17:52:00,81.9,67.4,29.30,ESE,118,7.0,13.0,61,0.00,,,0.00,WUHU216DAVISVP2,2013-07-13 21:52:00,
2013-07-13 17:55:00,81.9,67.4,29.30,ESE,113,7.0,13.0,61,0.00,,,0.00,WUHU216DAVISVP2,2013-07-13 21:55:00,
2013-07-13 17:56:00,81.9,67.4,29.30,SE,124,13.0,13.0,61,0.00,,,0.00,WUHU216DAVISVP2,2013-07-13 21:56:00,
2013-07-13 17:57:00,81.8,67.3,29.30,ESE,108,11.0,13.0,61,0.00,,,0.00,WUHU216DAVISVP2,2013-07-13 21:57:00,
2013-07-13 17:58:00,81.7,66.7,29.30,ESE,107,8.0,13.0,60,0.00,,,0.00,WUHU216DAVISVP2,2013-07-13 21:58:00,
2013-07-13 18:00:00,81.7,67.7,29.30,ENE,78,6.0,13.0,62,0.00,,,0.00,WUHU216DAVISVP2,2013-07-13 22:00:00,
2013-07-13 18:01:00,81.8,67.8,29.30,ENE,75,6.0,13.0,62,0.00,,,0.00,WUHU216DAVISVP2,2013-07-13 22:01:00,
2013-07-13 18:02:00,81.8,67.8,29.30,ESE,108,8.0,13.0,62,0.00,,,0.00,WUHU216DAVISVP2,2013-07-13 22:02:00,
2013-07-13 18:03:00,81.8,67.8,29.30,East,89,8.0,13.0,62,0.00,,,0.00,WUHU216DAVISVP2,2013-07-13 22:03:00,
2013-07-13 18:05:00,81.9,68.3,29.30,ESE,108,9.0,13.0,63,0.00,,,0.00,WUHU216DAVISVP2,2013-07-13 22:05:00,
2013-07-13 18:06:00,81.9,67.9,29.29,East,100,12.0,13.0,62,0.00,,,0.00,WUHU216DAVISVP2,2013-07-13 22:06:00,
2013-07-13 18:07:00,81.9,67.9,29.29,ESE,108,9.0,13.0,62,0.00,,,0.00,WUHU216DAVISVP2,2013-07-13 22:07:00,
2013-07-13 18:08:00,81.9,67.4,29.29,ESE,109,10.0,13.0,61,0.00,,,0.00,WUHU216DAVISVP2,2013-07-13 22:08:00,
2013-07-13 18:10:00,81.7,67.2,29.29,ESE,103,11.0,13.0,61,0.00,,,0.00,WUHU216DAVISVP2,2013-07-13 22:10:00,
2013-07-13 18:12:00,81.7,67.7,29.29,East,97,9.0,14.0,62,0.00,,,0.00,WUHU216DAVISVP2,2013-07-13 22:12:00,
2013-07-13 18:13:00,81.6,67.6,29.29,ESE,105,9.0,14.0,62,0.00,,,0.00,WUHU216DAVISVP2,2013-07-13 22:13:00,
2013-07-13 18:16:00,81.6,67.6,29.29,ESE,103,8.0,14.0,62,0.00,,,0.00,WUHU216DAVISVP2,2013-07-13 22:16:00,
2013-07-13 18:17:00,81.6,67.6,29.29,ESE,105,6.0,14.0,62,0.00,,,0.00,WUHU216DAVISVP2,2013-07-13 22:17:00,
2013-07-13 18:18:00,81.6,67.6,29.29,ESE,110,11.0,14.0,62,0.00,,,0.00,WUHU216DAVISVP2,2013-07-13 22:18:00,
2013-07-13 18:21:00,81.6,67.1,29.29,SE,127,8.0,14.0,61,0.00,,,0.00,WUHU216DAVISVP2,2013-07-13 22:21:00,
2013-07-13 18:22:00,81.6,67.1,29.29,ESE,120,4.0,14.0,61,0.00,,,0.00,WUHU216DAVISVP2,2013-07-13 22:22:00,
2013-07-13 18:23:00,81.6,67.6,29.29,ENE,77,4.0,14.0,62,0.00,,,0.00,WUHU216DAVISVP2,2013-07-13 22:23:00,
2013-07-13 18:26:00,81.6,67.6,29.29,ESE,113,9.0,14.0,62,0.00,,,0.00,WUHU216DAVISVP2,2013-07-13 22:26:00,
2013-07-13 18:27:00,81.6,67.6,29.29,East,91,5.0,14.0,62,0.00,,,0.00,WUHU216DAVISVP2,2013-07-13 22:27:00,
2013-07-13 18:28:00,81.6,67.1,29.29,ESE,110,5.0,13.0,61,0.00,,,0.00,WUHU216DAVISVP2,2013-07-13 22:28:00,
2013-07-13 18:32:00,81.7,67.7,29.29,ENE,75,7.0,13.0,62,0.00,,,0.00,WUHU216DAVISVP2,2013-07-13 22:32:00,
2013-07-13 18:33:00,81.7,67.2,29.30,ESE,108,12.0,13.0,61,0.00,,,0.00,WUHU216DAVISVP2,2013-07-13 22:33:00,
2013-07-13 18:34:00,81.7,67.2,29.30,NE,51,8.0,13.0,61,0.00,,,0.00,WUHU216DAVISVP2,2013-07-13 22:34:00,
2013-07-13 18:37:00,81.7,67.7,29.29,ESE,106,7.0,13.0,62,0.00,,,0.00,WUHU216DAVISVP2,2013-07-13 22:37:00,
2013-07-13 18:38:00,81.7,67.2,29.30,ESE,115,5.0,13.0,61,0.00,,,0.00,WUHU216DAVISVP2,2013-07-13 22:38:00,
2013-07-13 18:39:00,81.7,67.2,29.29,ESE,106,9.0,13.0,61,0.00,,,0.00,WUHU216DAVISVP2,2013-07-13 22:39:00,
2013-07-13 18:42:00,81.7,67.2,29.29,East,96,8.0,13.0,61,0.00,,,0.00,WUHU216DAVISVP2,2013-07-13 22:42:00,
2013-07-13 18:43:00,81.7,67.2,29.29,SSE,152,7.0,13.0,61,0.00,,,0.00,WUHU216DAVISVP2,2013-07-13 22:43:00,
2013-07-13 18:44:00,81.7,67.2,29.30,SE,124,5.0,13.0,61,0.00,,,0.00,WUHU216DAVISVP2,2013-07-13 22:44:00,
2013-07-13 18:47:00,81.7,67.2,29.30,East,96,4.0,13.0,61,0.00,,,0.00,WUHU216DAVISVP2,2013-07-13 22:47:00,
2013-07-13 18:48:00,81.7,67.2,29.30,SE,143,4.0,13.0,61,0.00,,,0.00,WUHU216DAVISVP2,2013-07-13 22:48:00,
2013-07-13 18:49:00,81.7,67.7,29.30,NE,51,1.0,13.0,62,0.00,,,0.00,WUHU216DAVISVP2,2013-07-13 22:49:00,
2013-07-13 18:52:00,81.7,67.2,29.30,ESE,109,9.0,13.0,61,0.00,,,0.00,WUHU216DAVISVP2,2013-07-13 22:52:00,
2013-07-13 18:53:00,81.8,67.3,29.30,East,92,6.0,13.0,61,0.00,,,0.00,WUHU216DAVISVP2,2013-07-13 22:53:00,
2013-07-13 18:54:00,81.7,67.7,29.30,East,94,9.0,13.0,62,0.00,,,0.00,WUHU216DAVISVP2,2013-07-13 22:54:00,
2013-07-13 18:55:00,81.7,67.2,29.30,East,99,7.0,13.0,61,0.00,,,0.00,WUHU216DAVISVP2,2013-07-13 22:55:00,
2013-07-13 18:57:00,81.6,67.1,29.30,East,95,5.0,13.0,61,0.00,,,0.00,WUHU216DAVISVP2,2013-07-13 22:57:00,
2013-07-13 18:58:00,81.6,67.6,29.30,ESE,103,8.0,12.0,62,0.00,,,0.00,WUHU216DAVISVP2,2013-07-13 22:58:00,
2013-07-13 18:59:00,81.5,67.5,29.30,ESE,104,8.0,12.0,62,0.00,,,0.00,WUHU216DAVISVP2,2013-07-13 22:59:00,
2013-07-13 19:01:00,81.4,67.4,29.30,ENE,68,6.0,13.0,62,0.00,,,0.00,WUHU216DAVISVP2,2013-07-13 23:01:00,
2013-07-13 19:03:00,81.4,67.8,29.30,East,82,4.0,13.0,63,0.00,,,0.00,WUHU216DAVISVP2,2013-07-13 23:03:00,
2013-07-13 19:04:00,81.4,67.4,29.30,ESE,119,6.0,13.0,62,0.00,,,0.00,WUHU216DAVISVP2,2013-07-13 23:04:00,
2013-07-13 19:05:00,81.4,67.4,29.30,SE,145,6.0,13.0,62,0.00,,,0.00,WUHU216DAVISVP2,2013-07-13 23:05:00,
2013-07-13 19:08:00,81.4,67.4,29.30,ENE,66,3.0,13.0,62,0.00,,,0.00,WUHU216DAVISVP2,2013-07-13 23:08:00,
2013-07-13 19:09:00,81.4,67.4,29.30,East,85,4.0,13.0,62,0.00,,,0.00,WUHU216DAVISVP2,2013-07-13 23:09:00,
2013-07-13 19:10:00,81.4,67.4,29.30,East,89,4.0,13.0,62,0.00,,,0.00,WUHU216DAVISVP2,2013-07-13 23:10:00,
2013-07-13 19:11:00,81.4,67.4,29.30,ESE,111,9.0,13.0,62,0.00,,,0.00,WUHU216DAVISVP2,2013-07-13 23:11:00,
2013-07-13 19:13:00,81.4,67.4,29.30,ENE,74,6.0,13.0,62,0.00,,,0.00,WUHU216DAVISVP2,2013-07-13 23:13:00,
2013-07-13 19:15:00,81.4,67.8,29.30,ESE,107,6.0,13.0,63,0.00,,,0.00,WUHU216DAVISVP2,2013-07-13 23:15:00,
2013-07-13 19:17:00,81.3,67.8,29.30,East,97,7.0,13.0,63,0.00,,,0.00,WUHU216DAVISVP2,2013-07-13 23:17:00,
2013-07-13 19:19:00,81.3,67.8,29.30,East,100,8.0,11.0,63,0.00,,,0.00,WUHU216DAVISVP2,2013-07-13 23:19:00,
2013-07-13 19:20:00,81.3,67.8,29.30,SE,134,5.0,11.0,63,0.00,,,0.00,WUHU216DAVISVP2,2013-07-13 23:20:00,
2013-07-13 19:23:00,81.3,67.8,29.30,East,82,5.0,11.0,63,0.00,,,0.00,WUHU216DAVISVP2,2013-07-13 23:23:00,
2013-07-13 19:24:00,81.3,68.2,29.30,ESE,108,6.0,11.0,64,0.00,,,0.00,WUHU216DAVISVP2,2013-07-13 23:24:00,
2013-07-13 19:25:00,81.3,68.2,29.30,ESE,105,6.0,11.0,64,0.00,,,0.00,WUHU216DAVISVP2,2013-07-13 23:25:00,
2013-07-13 19:28:00,81.3,68.2,29.30,East,98,5.0,11.0,64,0.00,,,0.00,WUHU216DAVISVP2,2013-07-13 23:28:00,
2013-07-13 19:29:00,81.3,68.2,29.30,East,98,4.0,11.0,64,0.00,,,0.00,WUHU216DAVISVP2,2013-07-13 23:29:00,
2013-07-13 19:30:00,81.3,68.7,29.30,ESE,108,4.0,10.0,65,0.00,,,0.00,WUHU216DAVISVP2,2013-07-13 23:30:00,
2013-07-13 19:34:00,81.2,68.1,29.30,East,95,4.0,10.0,64,0.00,,,0.00,WUHU216DAVISVP2,2013-07-13 23:34:00,
2013-07-13 19:35:00,81.1,68.0,29.30,ESE,110,6.0,9.0,64,0.00,,,0.00,WUHU216DAVISVP2,2013-07-13 23:35:00,
2013-07-13 19:36:00,81.1,67.6,29.30,ESE,117,9.0,14.0,63,0.00,,,0.00,WUHU216DAVISVP2,2013-07-13 23:36:00,
2013-07-13 19:39:00,81.0,67.9,29.30,ESE,108,6.0,14.0,64,0.00,,,0.00,WUHU216DAVISVP2,2013-07-13 23:39:00,
2013-07-13 19:40:00,80.9,67.4,29.30,ESE,103,6.0,14.0,63,0.00,,,0.00,WUHU216DAVISVP2,2013-07-13 23:40:00,
2013-07-13 19:41:00,80.9,67.8,29.30,SE,125,9.0,14.0,64,0.00,,,0.00,WUHU216DAVISVP2,2013-07-13 23:41:00,
2013-07-13 19:44:00,80.8,67.7,29.30,ESE,110,3.0,14.0,64,0.00,,,0.00,WUHU216DAVISVP2,2013-07-13 23:44:00,
2013-07-13 19:45:00,80.8,67.7,29.30,ESE,116,7.0,14.0,64,0.00,,,0.00,WUHU216DAVISVP2,2013-07-13 23:45:00,
2013-07-13 19:46:00,80.7,67.6,29.30,ESE,123,5.0,14.0,64,0.00,,,0.00,WUHU216DAVISVP2,2013-07-13 23:46:00,
2013-07-13 19:49:00,80.6,67.5,29.30,SE,127,6.0,14.0,64,0.00,,,0.00,WUHU216DAVISVP2,2013-07-13 23:49:00,
2013-07-13 19:50:00,80.6,67.5,29.30,ESE,104,7.0,14.0,64,0.00,,,0.00,WUHU216DAVISVP2,2013-07-13 23:50:00,
2013-07-13 19:51:00,80.6,68.0,29.30,ESE,103,4.0,14.0,65,0.00,,,0.00,WUHU216DAVISVP2,2013-07-13 23:51:00,
2013-07-13 19:55:00,80.5,67.9,29.30,East,92,5.0,14.0,65,0.00,,,0.00,WUHU216DAVISVP2,2013-07-13 23:55:00,
2013-07-13 19:56:00,80.5,67.9,29.30,East,95,6.0,11.0,65,0.00,,,0.00,WUHU216DAVISVP2,2013-07-13 23:56:00,
2013-07-13 20:00:00,80.4,67.8,29.30,East,99,5.0,11.0,65,0.00,,,0.00,WUHU216DAVISVP2,2013-07-14 00:00:00,
2013-07-13 20:01:00,80.4,68.2,29.30,ESE,114,6.0,11.0,66,0.00,,,0.00,WUHU216DAVISVP2,2013-07-14 00:01:00,
2013-07-13 20:02:00,80.4,68.2,29.30,ESE,102,7.0,11.0,66,0.00,,,0.00,WUHU216DAVISVP2,2013-07-14 00:02:00,
2013-07-13 20:05:00,80.3,68.1,29.30,East,98,5.0,11.0,66,0.00,,,0.00,WUHU216DAVISVP2,2013-07-14 00:05:00,
2013-07-13 20:06:00,80.3,68.1,29.30,ESE,120,7.0,11.0,66,0.00,,,0.00,WUHU216DAVISVP2,2013-07-14 00:06:00,
2013-07-13 20:07:00,80.3,68.1,29.30,East,99,4.0,11.0,66,0.00,,,0.00,WUHU216DAVISVP2,2013-07-14 00:07:00,
2013-07-13 20:10:00,80.2,68.5,29.30,ESE,108,5.0,11.0,67,0.00,,,0.00,WUHU216DAVISVP2,2013-07-14 00:10:00,
2013-07-13 20:11:00,80.1,68.4,29.30,ESE,103,5.0,11.0,67,0.00,,,0.00,WUHU216DAVISVP2,2013-07-14 00:11:00,
2013-07-13 20:12:00,80.1,68.4,29.30,ESE,107,7.0,11.0,67,0.00,,,0.00,WUHU216DAVISVP2,2013-07-14 00:12:00,
2013-07-13 20:15:00,80.0,68.7,29.30,ESE,116,4.0,11.0,68,0.00,,,0.00,WUHU216DAVISVP2,2013-07-14 00:15:00,
2013-07-13 20:17:00,79.9,68.6,29.30,ESE,112,6.0,11.0,68,0.00,,,0.00,WUHU216DAVISVP2,2013-07-14 00:17:00,
2013-07-13 20:20:00,79.8,68.5,29.30,East,93,5.0,10.0,68,0.00,,,0.00,WUHU216DAVISVP2,2013-07-14 00:20:00,
2013-07-13 20:21:00,79.8,68.5,29.30,ESE,111,4.0,10.0,68,0.00,,,0.00,WUHU216DAVISVP2,2013-07-14 00:21:00,
2013-07-13 20:22:00,79.7,68.4,29.30,ESE,106,4.0,10.0,68,0.00,,,0.00,WUHU216DAVISVP2,2013-07-14 00:22:00,
2013-07-13 20:26:00,79.6,68.8,29.30,East,100,3.0,7.0,69,0.00,,,0.00,WUHU216DAVISVP2,2013-07-14 00:26:00,
2013-07-13 20:27:00,79.6,68.8,29.30,East,85,3.0,7.0,69,0.00,,,0.00,WUHU216DAVISVP2,2013-07-14 00:27:00,
2013-07-13 20:28:00,79.6,68.8,29.30,East,90,3.0,7.0,69,0.00,,,0.00,WUHU216DAVISVP2,2013-07-14 00:28:00,
2013-07-13 20:31:00,79.5,68.7,29.30,East,100,2.0,7.0,69,0.00,,,0.00,WUHU216DAVISVP2,2013-07-14 00:31:00,
2013-07-13 20:32:00,79.5,68.7,29.30,East,100,1.0,7.0,69,0.00,,,0.00,WUHU216DAVISVP2,2013-07-14 00:32:00,
2013-07-13 20:33:00,79.5,68.7,29.30,East,83,3.0,7.0,69,0.00,,,0.00,WUHU216DAVISVP2,2013-07-14 00:33:00,
2013-07-13 20:36:00,79.4,68.6,29.30,East,86,4.0,7.0,69,0.00,,,0.00,WUHU216DAVISVP2,2013-07-14 00:36:00,
2013-07-13 20:37:00,79.4,68.6,29.30,ESE,118,5.0,7.0,69,0.00,,,0.00,WUHU216DAVISVP2,2013-07-14 00:37:00,
2013-07-13 20:38:00,79.3,68.5,29.30,ESE,120,6.0,7.0,69,0.00,,,0.00,WUHU216DAVISVP2,2013-07-14 00:38:00,
2013-07-13 20:41:00,79.1,68.3,29.30,ESE,114,5.0,7.0,69,0.00,,,0.00,WUHU216DAVISVP2,2013-07-14 00:41:00,
2013-07-13 20:42:00,79.1,68.3,29.30,ESE,102,5.0,7.0,69,0.00,,,0.00,WUHU216DAVISVP2,2013-07-14 00:42:00,
2013-07-13 20:43:00,79.0,68.2,29.30,ESE,102,2.0,7.0,69,0.00,,,0.00,WUHU216DAVISVP2,2013-07-14 00:43:00,
2013-07-13 20:44:00,79.0,68.2,29.30,East,89,4.0,7.0,69,0.00,,,0.00,WUHU216DAVISVP2,2013-07-14 00:44:00,
2013-07-13 20:46:00,78.8,68.0,29.30,ESE,104,6.0,7.0,69,0.00,,,0.00,WUHU216DAVISVP2,2013-07-14 00:46:00,
2013-07-13 20:47:00,78.8,68.4,29.30,East,95,6.0,7.0,70,0.00,,,0.00,WUHU216DAVISVP2,2013-07-14 00:47:00,
2013-07-13 20:48:00,78.7,68.3,29.30,ESE,113,5.0,7.0,70,0.00,,,0.00,WUHU216DAVISVP2,2013-07-14 00:48:00,
2013-07-13 20:49:00,78.7,68.3,29.30,ESE,103,4.0,7.0,70,0.00,,,0.00,WUHU216DAVISVP2,2013-07-14 00:49:00,
2013-07-13 20:52:00,78.6,68.2,29.30,East,100,1.0,7.0,70,0.00,,,0.00,WUHU216DAVISVP2,2013-07-14 00:52:00,
2013-07-13 20:53:00,78.5,68.1,29.30,ESE,110,6.0,7.0,70,0.00,,,0.00,WUHU216DAVISVP2,2013-07-14 00:53:00,
2013-07-13 20:54:00,78.4,68.0,29.30,ESE,103,5.0,7.0,70,0.00,,,0.00,WUHU216DAVISVP2,2013-07-14 00:54:00,
2013-07-13 20:57:00,78.4,68.0,29.30,East,92,5.0,7.0,70,0.00,,,0.00,WUHU216DAVISVP2,2013-07-14 00:57:00,
2013-07-13 20:58:00,78.3,67.9,29.30,ESE,112,4.0,7.0,70,0.00,,,0.00,WUHU216DAVISVP2,2013-07-14 00:58:00,
2013-07-13 20:59:00,78.3,67.9,29.30,ESE,107,7.0,7.0,70,0.00,,,0.00,WUHU216DAVISVP2,2013-07-14 00:59:00,
2013-07-13 21:02:00,78.1,68.1,29.30,East,101,7.0,8.0,71,0.00,,,0.00,WUHU216DAVISVP2,2013-07-14 01:02:00,
2013-07-13 21:03:00,78.1,68.1,29.30,ESE,111,4.0,8.0,71,0.00,,,0.00,WUHU216DAVISVP2,2013-07-14 01:03:00,
2013-07-13 21:04:00,78.0,68.0,29.30,ESE,112,2.0,8.0,71,0.00,,,0.00,WUHU216DAVISVP2,2013-07-14 01:04:00,
2013-07-13 21:07:00,77.8,68.2,29.30,ESE,113,5.0,8.0,72,0.00,,,0.00,WUHU216DAVISVP2,2013-07-14 01:07:00,
2013-07-13 21:08:00,77.8,68.2,29.30,ESE,108,5.0,8.0,72,0.00,,,0.00,WUHU216DAVISVP2,2013-07-14 01:08:00,
2013-07-13 21:09:00,77.7,68.1,29.30,ESE,102,5.0,8.0,72,0.00,,,0.00,WUHU216DAVISVP2,2013-07-14 01:09:00,
2013-07-13 21:13:00,77.5,68.3,29.30,East,100,1.0,8.0,73,0.00,,,0.00,WUHU216DAVISVP2,2013-07-14 01:13:00,
2013-07-13 21:14:00,77.4,68.3,29.30,ESE,123,2.0,8.0,73,0.00,,,0.00,WUHU216DAVISVP2,2013-07-14 01:14:00,
2013-07-13 21:18:00,77.1,68.3,29.30,ESE,122,1.0,8.0,74,0.00,,,0.00,WUHU216DAVISVP2,2013-07-14 01:18:00,
2013-07-13 21:19:00,77.0,68.3,29.30,ESE,122,0.0,8.0,74,0.00,,,0.00,WUHU216DAVISVP2,2013-07-14 01:19:00,
2013-07-13 21:20:00,77.0,68.3,29.30,ESE,122,1.0,8.0,74,0.00,,,0.00,WUHU216DAVISVP2,2013-07-14 01:20:00,
2013-07-13 21:23:00,76.7,68.3,29.30,ESE,115,4.0,7.0,75,0.00,,,0.00,WUHU216DAVISVP2,2013-07-14 01:23:00,
2013-07-13 21:24:00,76.7,68.3,29.30,ESE,115,2.0,7.0,75,0.00,,,0.00,WUHU216DAVISVP2,2013-07-14 01:24:00,
2013-07-13 21:25:00,76.7,68.3,29.30,ESE,115,2.0,7.0,75,0.00,,,0.00,WUHU216DAVISVP2,2013-07-14 01:25:00,
2013-07-13 21:28:00,76.4,68.4,29.31,ESE,115,0.0,6.0,76,0.00,,,0.00,WUHU216DAVISVP2,2013-07-14 01:28:00,
2013-07-13 21:29:00,76.4,68.4,29.31,ESE,115,0.0,6.0,76,0.00,,,0.00,WUHU216DAVISVP2,2013-07-14 01:29:00,
2013-07-13 21:30:00,76.3,68.3,29.31,ESE,115,0.0,6.0,76,0.00,,,0.00,WUHU216DAVISVP2,2013-07-14 01:30:00,
2013-07-13 21:34:00,76.1,68.1,29.31,ESE,115,2.0,6.0,76,0.00,,,0.00,WUHU216DAVISVP2,2013-07-14 01:34:00,
2013-07-13 21:35:00,76.1,68.1,29.31,ESE,115,3.0,5.0,76,0.00,,,0.00,WUHU216DAVISVP2,2013-07-14 01:35:00,
2013-07-13 21:39:00,76.0,68.4,29.31,ESE,104,4.0,6.0,77,0.00,,,0.00,WUHU216DAVISVP2,2013-07-14 01:39:00,
2013-07-13 21:40:00,76.0,68.4,29.31,ESE,107,4.0,6.0,77,0.00,,,0.00,WUHU216DAVISVP2,2013-07-14 01:40:00,
2013-07-13 21:41:00,75.9,68.3,29.31,ESE,107,1.0,6.0,77,0.00,,,0.00,WUHU216DAVISVP2,2013-07-14 01:41:00,
2013-07-13 21:44:00,75.9,68.3,29.31,ESE,107,1.0,6.0,77,0.00,,,0.00,WUHU216DAVISVP2,2013-07-14 01:44:00,
2013-07-13 21:45:00,75.9,68.3,29.31,ESE,107,1.0,6.0,77,0.00,,,0.00,WUHU216DAVISVP2,2013-07-14 01:45:00,
2013-07-13 21:46:00,75.8,68.2,29.31,ESE,107,2.0,6.0,77,0.00,,,0.00,WUHU216DAVISVP2,2013-07-14 01:46:00,
2013-07-13 21:49:00,75.8,68.2,29.31,ESE,107,3.0,6.0,77,0.00,,,0.00,WUHU216DAVISVP2,2013-07-14 01:49:00,
2013-07-13 21:50:00,75.7,68.1,29.31,ESE,107,4.0,6.0,77,0.00,,,0.00,WUHU216DAVISVP2,2013-07-14 01:50:00,
2013-07-13 21:51:00,75.7,68.1,29.31,ESE,104,4.0,6.0,77,0.00,,,0.00,WUHU216DAVISVP2,2013-07-14 01:51:00,
2013-07-13 21:54:00,75.7,68.1,29.31,East,94,4.0,6.0,77,0.00,,,0.00,WUHU216DAVISVP2,2013-07-14 01:54:00,
2013-07-13 21:55:00,75.7,68.1,29.31,ESE,122,5.0,6.0,77,0.00,,,0.00,WUHU216DAVISVP2,2013-07-14 01:55:00,
2013-07-13 21:56:00,75.6,68.0,29.31,ESE,116,1.0,6.0,77,0.00,,,0.00,WUHU216DAVISVP2,2013-07-14 01:56:00,
2013-07-13 21:59:00,75.6,68.0,29.31,ESE,110,4.0,6.0,77,0.00,,,0.00,WUHU216DAVISVP2,2013-07-14 01:59:00,
2013-07-13 22:00:00,75.6,68.0,29.31,ESE,111,1.0,6.0,77,0.00,,,0.00,WUHU216DAVISVP2,2013-07-14 02:00:00,
2013-07-13 22:01:00,75.5,67.9,29.32,ESE,115,2.0,6.0,77,0.00,,,0.00,WUHU216DAVISVP2,2013-07-14 02:01:00,
2013-07-13 22:04:00,75.5,67.9,29.32,ESE,109,0.0,6.0,77,0.00,,,0.00,WUHU216DAVISVP2,2013-07-14 02:04:00,
2013-07-13 22:05:00,75.4,68.2,29.32,ESE,119,1.0,6.0,78,0.00,,,0.00,WUHU216DAVISVP2,2013-07-14 02:05:00,
2013-07-13 22:06:00,75.4,68.2,29.32,ESE,119,0.0,6.0,78,0.00,,,0.00,WUHU216DAVISVP2,2013-07-14 02:06:00,
2013-07-13 22:09:00,75.2,68.0,29.32,ESE,111,1.0,6.0,78,0.00,,,0.00,WUHU216DAVISVP2,2013-07-14 02:09:00,
2013-07-13 22:11:00,75.2,68.0,29.32,ESE,111,2.0,6.0,78,0.00,,,0.00,WUHU216DAVISVP2,2013-07-14 02:11:00,
2013-07-13 22:14:00,75.0,67.8,29.32,ESE,117,4.0,6.0,78,0.00,,,0.00,WUHU216DAVISVP2,2013-07-14 02:14:00,
2013-07-13 22:16:00,74.9,67.7,29.32,ESE,111,1.0,6.0,78,0.00,,,0.00,WUHU216DAVISVP2,2013-07-14 02:16:00,
2013-07-13 22:19:00,74.8,68.0,29.32,ESE,114,2.0,7.0,79,0.00,,,0.00,WUHU216DAVISVP2,2013-07-14 02:19:00,
2013-07-13 22:21:00,74.7,67.9,29.32,ESE,120,2.0,7.0,79,0.00,,,0.00,WUHU216DAVISVP2,2013-07-14 02:21:00,
2013-07-13 22:22:00,74.7,67.9,29.32,ESE,116,2.0,7.0,79,0.00,,,0.00,WUHU216DAVISVP2,2013-07-14 02:22:00,
2013-07-13 22:24:00,74.6,68.1,29.33,ESE,114,1.0,7.0,80,0.00,,,0.00,WUHU216DAVISVP2,2013-07-14 02:24:00,
2013-07-13 22:26:00,74.6,68.1,29.33,ESE,114,1.0,7.0,80,0.00,,,0.00,WUHU216DAVISVP2,2013-07-14 02:26:00,
2013-07-13 22:27:00,74.5,68.0,29.33,ESE,114,0.0,7.0,80,0.00,,,0.00,WUHU216DAVISVP2,2013-07-14 02:27:00,
2013-07-13 22:29:00,74.4,67.9,29.33,SE,141,1.0,7.0,80,0.00,,,0.00,WUHU216DAVISVP2,2013-07-14 02:29:00,
2013-07-13 22:31:00,74.3,67.8,29.33,ESE,115,5.0,7.0,80,0.00,,,0.00,WUHU216DAVISVP2,2013-07-14 02:31:00,
2013-07-13 22:32:00,74.2,67.7,29.33,ESE,108,4.0,7.0,80,0.00,,,0.00,WUHU216DAVISVP2,2013-07-14 02:32:00,
2013-07-13 22:34:00,74.1,67.6,29.33,ESE,111,2.0,7.0,80,0.00,,,0.00,WUHU216DAVISVP2,2013-07-14 02:34:00,
2013-07-13 22:37:00,74.0,67.9,29.33,ESE,108,1.0,6.0,81,0.00,,,0.00,WUHU216DAVISVP2,2013-07-14 02:37:00,
2013-07-13 22:38:00,74.0,67.9,29.33,ESE,108,0.0,6.0,81,0.00,,,0.00,WUHU216DAVISVP2,2013-07-14 02:38:00,
2013-07-13 22:40:00,73.9,67.8,29.33,ESE,104,5.0,6.0,81,0.00,,,0.00,WUHU216DAVISVP2,2013-07-14 02:40:00,
2013-07-13 22:42:00,73.9,67.8,29.33,ESE,117,4.0,6.0,81,0.00,,,0.00,WUHU216DAVISVP2,2013-07-14 02:42:00,
2013-07-13 22:43:00,73.8,67.7,29.33,SE,124,4.0,6.0,81,0.00,,,0.00,WUHU216DAVISVP2,2013-07-14 02:43:00,
2013-07-13 22:45:00,73.8,67.7,29.33,ESE,123,5.0,6.0,81,0.00,,,0.00,WUHU216DAVISVP2,2013-07-14 02:45:00,
2013-07-13 22:47:00,73.7,67.9,29.33,ESE,111,0.0,6.0,82,0.00,,,0.00,WUHU216DAVISVP2,2013-07-14 02:47:00,
2013-07-13 22:48:00,73.7,67.9,29.33,ESE,111,0.0,6.0,82,0.00,,,0.00,WUHU216DAVISVP2,2013-07-14 02:48:00,
2013-07-13 22:50:00,73.7,67.9,29.33,ESE,111,0.0,6.0,82,0.00,,,0.00,WUHU216DAVISVP2,2013-07-14 02:50:00,
2013-07-13 22:52:00,73.6,67.8,29.33,ESE,111,0.0,6.0,82,0.00,,,0.00,WUHU216DAVISVP2,2013-07-14 02:52:00,
2013-07-13 22:53:00,73.6,67.8,29.33,ESE,111,0.0,6.0,82,0.00,,,0.00,WUHU216DAVISVP2,2013-07-14 02:53:00,
2013-07-13 22:55:00,73.5,67.7,29.33,ESE,111,0.0,6.0,82,0.00,,,0.00,WUHU216DAVISVP2,2013-07-14 02:55:00,
2013-07-13 22:57:00,73.4,67.6,29.34,ESE,111,0.0,6.0,82,0.00,,,0.00,WUHU216DAVISVP2,2013-07-14 02:57:00,
2013-07-13 22:58:00,73.4,67.6,29.34,ESE,111,0.0,6.0,82,0.00,,,0.00,WUHU216DAVISVP2,2013-07-14 02:58:00,
2013-07-13 23:00:00,73.3,67.9,29.34,ESE,111,0.0,6.0,83,0.00,,,0.00,WUHU216DAVISVP2,2013-07-14 03:00:00,
2013-07-13 23:02:00,73.3,67.9,29.34,ESE,111,0.0,6.0,83,0.00,,,0.00,WUHU216DAVISVP2,2013-07-14 03:02:00,
2013-07-13 23:03:00,73.2,67.8,29.34,ESE,111,0.0,6.0,83,0.00,,,0.00,WUHU216DAVISVP2,2013-07-14 03:03:00,
2013-07-13 23:05:00,73.1,67.7,29.34,ESE,111,0.0,2.0,83,0.00,,,0.00,WUHU216DAVISVP2,2013-07-14 03:05:00,
2013-07-13 23:07:00,73.1,67.7,29.34,SE,125,1.0,5.0,83,0.00,,,0.00,WUHU216DAVISVP2,2013-07-14 03:07:00,
2013-07-13 23:08:00,73.1,67.7,29.34,ESE,115,4.0,5.0,83,0.00,,,0.00,WUHU216DAVISVP2,2013-07-14 03:08:00,
2013-07-13 23:11:00,73.1,67.7,29.34,ESE,104,1.0,5.0,83,0.00,,,0.00,WUHU216DAVISVP2,2013-07-14 03:11:00,
2013-07-13 23:12:00,73.1,67.7,29.34,ESE,104,0.0,5.0,83,0.00,,,0.00,WUHU216DAVISVP2,2013-07-14 03:12:00,
2013-07-13 23:13:00,73.0,67.6,29.34,ESE,104,0.0,5.0,83,0.00,,,0.00,WUHU216DAVISVP2,2013-07-14 03:13:00,
2013-07-13 23:14:00,73.1,67.7,29.34,ESE,104,0.0,5.0,83,0.00,,,0.00,WUHU216DAVISVP2,2013-07-14 03:14:00,
2013-07-13 23:16:00,73.0,67.6,29.34,ESE,104,0.0,5.0,83,0.00,,,0.00,WUHU216DAVISVP2,2013-07-14 03:16:00,
2013-07-13 23:18:00,73.0,67.6,29.34,ESE,104,0.0,5.0,83,0.00,,,0.00,WUHU216DAVISVP2,2013-07-14 03:18:00,
2013-07-13 23:19:00,72.9,67.5,29.34,ESE,104,0.0,5.0,83,0.00,,,0.00,WUHU216DAVISVP2,2013-07-14 03:19:00,
2013-07-13 23:22:00,72.9,67.5,29.34,ESE,110,2.0,5.0,83,0.00,,,0.00,WUHU216DAVISVP2,2013-07-14 03:22:00,
2013-07-13 23:23:00,72.9,67.5,29.34,ESE,107,1.0,5.0,83,0.00,,,0.00,WUHU216DAVISVP2,2013-07-14 03:23:00,
2013-07-13 23:24:00,72.8,67.4,29.34,ESE,116,4.0,5.0,83,0.00,,,0.00,WUHU216DAVISVP2,2013-07-14 03:24:00,
2013-07-13 23:25:00,72.9,67.5,29.34,ESE,123,4.0,5.0,83,0.00,,,0.00,WUHU216DAVISVP2,2013-07-14 03:25:00,
2013-07-13 23:27:00,72.8,67.4,29.34,SE,146,0.0,5.0,83,0.00,,,0.00,WUHU216DAVISVP2,2013-07-14 03:27:00,
2013-07-13 23:28:00,72.8,67.4,29.34,SE,146,0.0,5.0,83,0.00,,,0.00,WUHU216DAVISVP2,2013-07-14 03:28:00,
2013-07-13 23:29:00,72.8,67.7,29.34,SE,146,0.0,5.0,84,0.00,,,0.00,WUHU216DAVISVP2,2013-07-14 03:29:00,
2013-07-13 23:30:00,72.8,67.7,29.34,SE,125,0.0,5.0,84,0.00,,,0.00,WUHU216DAVISVP2,2013-07-14 03:30:00,
2013-07-13 23:32:00,72.8,67.7,29.34,ESE,110,2.0,5.0,84,0.00,,,0.00,WUHU216DAVISVP2,2013-07-14 03:32:00,
2013-07-13 23:33:00,72.7,67.6,29.34,ESE,110,0.0,5.0,84,0.00,,,0.00,WUHU216DAVISVP2,2013-07-14 03:33:00,
2013-07-13 23:34:00,72.7,67.6,29.34,ESE,110,0.0,5.0,84,0.00,,,0.00,WUHU216DAVISVP2,2013-07-14 03:34:00,
2013-07-13 23:35:00,72.7,67.6,29.34,ESE,110,0.0,5.0,84,0.00,,,0.00,WUHU216DAVISVP2,2013-07-14 03:35:00,
2013-07-13 23:37:00,72.6,67.5,29.34,SE,145,0.0,5.0,84,0.00,,,0.00,WUHU216DAVISVP2,2013-07-14 03:37:00,
2013-07-13 23:38:00,72.6,67.5,29.34,ESE,102,1.0,5.0,84,0.00,,,0.00,WUHU216DAVISVP2,2013-07-14 03:38:00,
2013-07-13 23:39:00,72.6,67.5,29.34,East,101,2.0,5.0,84,0.00,,,0.00,WUHU216DAVISVP2,2013-07-14 03:39:00,
2013-07-13 23:40:00,72.6,67.5,29.34,ESE,106,2.0,5.0,84,0.00,,,0.00,WUHU216DAVISVP2,2013-07-14 03:40:00,
2013-07-13 23:43:00,72.6,67.5,29.34,ESE,116,0.0,5.0,84,0.00,,,0.00,WUHU216DAVISVP2,2013-07-14 03:43:00,
2013-07-13 23:44:00,72.6,67.5,29.34,ESE,118,4.0,5.0,84,0.00,,,0.00,WUHU216DAVISVP2,2013-07-14 03:44:00,
2013-07-13 23:45:00,72.6,67.5,29.34,ESE,118,0.0,5.0,84,0.00,,,0.00,WUHU216DAVISVP2,2013-07-14 03:45:00,
2013-07-13 23:48:00,72.6,67.9,29.34,SE,134,0.0,5.0,85,0.00,,,0.00,WUHU216DAVISVP2,2013-07-14 03:48:00,
2013-07-13 23:49:00,72.6,67.9,29.34,East,93,2.0,5.0,85,0.00,,,0.00,WUHU216DAVISVP2,2013-07-14 03:49:00,
2013-07-13 23:50:00,72.6,67.9,29.34,East,93,1.0,5.0,85,0.00,,,0.00,WUHU216DAVISVP2,2013-07-14 03:50:00,
2013-07-13 23:53:00,72.6,67.9,29.34,ESE,104,5.0,5.0,85,0.00,,,0.00,WUHU216DAVISVP2,2013-07-14 03:53:00,
2013-07-13 23:55:00,72.6,67.8,29.34,ESE,112,4.0,5.0,85,0.00,,,0.00,WUHU216DAVISVP2,2013-07-14 03:55:00,
2013-07-13 23:56:00,72.6,67.8,29.35,East,98,2.0,5.0,85,0.00,,,0.00,WUHU216DAVISVP2,2013-07-14 03:56:00,
2013-07-13 23:58:00,72.6,67.9,29.35,ESE,111,2.0,5.0,85,0.00,,,0.00,WUHU216DAVISVP2,2013-07-14 03:58:00,
2013-07-13 23:59:00,72.6,67.9,29.35,ESE,108,2.0,5.0,85,0.00,,,0.00,WUHU216DAVISVP2,2013-07-14 03:59:00,